GFSSGP_925_temp_084.txt.gz
Temp
25 24 24 23 23 21 23 25 26 26 26 24 24 24 24 22 24 23 20 20 21 20 20 19 19 19 19 19 19 18 18 18 18 18 18 18 18 18 18 18 19 19 19 19 18 19 19 18 19
25 24 23 20 22 23 23 25 25 25 24 21 23 23 24 23 20 18 19 19 21 20 19 19 19 19 19 18 18 18 18 18 18 18 18 18 18 18 18 18 18 18 18 18 18 18 18 18 19
25 24 22 21 21 23 23 25 25 26 22 25 24 22 22 21 19 19 21 20 20 20 20 19 19 19 18 18 18 18 18 18 18 18 18 18 18 18 18 18 18 18 18 18 18 18 18 18 19
24 22 21 23 23 25 25 26 24 24 25 25 23 23 22 22 20 22 21 21 20 20 19 19 19 18 18 18 18 18 18 18 18 18 18 18 18 18 18 18 18 18 18 18 18 18 18 18 18
24 20 22 23 24 25 25 25 23 24 25 25 24 23 22 21 22 21 21 20 20 19 19 19 19 18 18 18 18 18 18 18 18 19 19 18 18 18 18 18 18 17 18 18 18 18 18 18 18
22 20 22 22 23 25 24 24 24 25 24 23 23 22 21 21 21 20 21 20 20 20 19 19 19 19 18 18 18 18 18 18 18 18 18 18 18 18 17 17 18 18 18 18 17 17 17 18 19
22 21 22 23 24 25 24 23 24 24 23 24 22 21 20 19 20 21 20 20 20 19 19 19 19 19 18 18 18 18 18 18 18 18 18 17 17 17 18 18 18 17 17 17 17 17 17 18 19
21 21 22 22 24 25 26 25 25 25 24 23 23 22 20 19 19 20 20 19 19 19 19 19 19 18 18 19 19 19 18 18 18 17 17 17 17 17 17 17 17 17 16 16 17 18 19 19 19
21 21 21 23 23 25 24 26 25 25 22 24 23 22 23 21 19 19 18 18 18 18 19 19 19 19 19 19 19 19 18 18 17 18 18 18 17 17 17 16 16 16 16 16 18 18 18 18 18
21 20 21 23 24 25 24 25 24 25 24 24 23 21 20 19 18 18 19 19 18 18 19 19 19 19 19 18 18 18 18 18 18 18 18 18 18 17 17 16 16 17 17 17 17 17 17 18 18
22 21 22 23 23 23 24 24 23 23 24 23 23 20 19 19 19 18 19 19 18 18 19 18 19 19 19 18 18 18 17 18 18 18 18 18 18 17 17 17 17 17 17 17 17 17 17 17 17
22 22 22 24 23 24 24 23 24 22 24 24 22 20 20 19 19 19 18 18 18 18 18 18 20 19 19 18 19 18 18 18 18 18 18 18 18 17 17 17 17 17 17 17 17 17 16 16 16
21 23 22 24 22 23 23 23 23 22 22 22 21 21 20 20 20 20 19 18 18 18 17 18 20 20 20 18 19 19 19 18 18 18 18 18 18 17 17 17 17 17 16 16 16 16 16 16 16
22 23 22 21 23 21 25 24 24 24 21 20 21 21 20 20 20 20 19 18 18 18 19 19 20 20 19 19 19 19 19 18 18 18 18 17 18 17 17 17 16 16 16 16 16 16 16 15 15
22 22 21 21 21 23 22 24 24 22 21 20 20 19 19 20 20 20 20 19 19 20 20 20 20 19 18 19 19 19 19 19 18 18 17 17 17 17 17 16 16 16 16 15 15 15 15 15 15
21 21 20 22 21 22 22 22 23 21 20 19 19 18 19 19 20 21 21 20 20 20 19 20 20 18 18 18 19 19 19 18 18 17 17 17 17 17 17 16 16 16 15 15 15 15 15 15 14
19 18 19 22 21 21 22 22 22 20 19 19 18 19 19 19 19 21 21 21 21 20 20 19 19 18 18 18 18 18 18 18 17 17 17 17 17 17 16 16 16 16 15 15 15 14 14 14 14
18 19 20 20 21 20 20 21 19 19 20 19 18 19 20 21 21 20 21 21 20 20 19 19 18 18 18 18 18 18 17 17 17 17 17 17 17 16 16 16 16 15 15 15 14 14 13 13 12
20 20 21 21 20 20 19 20 19 18 18 19 18 18 18 19 19 20 19 19 18 18 19 18 17 18 18 18 17 17 17 16 16 17 17 17 17 16 16 16 16 15 15 14 14 13 13 12 12
20 21 21 20 20 20 18 19 18 18 19 19 19 18 18 19 17 16 17 18 18 18 18 17 17 18 19 19 18 17 17 17 17 17 17 16 16 16 16 16 16 15 15 14 14 13 13 12 11
21 20 20 21 20 20 20 20 20 20 20 21 20 19 19 18 17 15 15 16 16 17 17 17 17 19 19 18 18 17 17 17 16 16 17 17 16 16 16 16 15 15 14 14 13 12 12 11 10
19 20 19 18 18 19 19 18 20 20 19 20 19 17 18 18 17 15 14 15 16 16 16 17 19 19 18 18 18 18 18 17 17 17 17 17 16 16 15 15 15 14 13 13 12 11 11 11 10
20 18 18 17 16 18 19 18 18 18 20 18 16 17 18 17 17 15 14 15 16 17 17 19 19 18 18 18 18 18 18 18 17 17 16 16 16 15 15 14 13 13 13 12 12 11 11 10 10
16 16 16 15 16 16 18 18 19 18 19 18 16 17 17 14 15 13 14 15 16 17 18 18 18 18 18 17 17 17 16 16 16 16 15 15 14 14 13 12 12 12 11 11 11 10 10 10 9
16 16 15 16 16 17 17 17 21 19 18 17 16 15 14 12 13 12 12 13 15 16 17 18 17 17 16 16 16 16 16 15 15 15 14 14 13 12 12 11 11 11 10 10 10 9 9 8 8
16 17 16 18 16 17 17 17 19 16 14 13 13 12 12 12 11 11 11 13 15 16 16 16 16 16 16 16 16 15 15 15 14 13 13 12 12 12 11 11 10 10 9 9 9 8 8 8 7
16 17 17 16 16 16 16 17 18 15 14 13 12 12 12 11 10 10 11 13 14 14 15 15 15 14 14 15 15 15 14 14 13 13 12 12 11 11 10 9 9 9 8 8 7 7 7 7 6
18 17 18 14 18 19 17 17 18 16 14 13 13 12 11 10 10 9 9 11 12 14 14 14 14 15 14 14 14 14 13 13 12 12 11 11 10 9 9 8 8 8 7 7 7 6 6 5 5
18 18 15 16 16 17 18 18 16 17 14 13 12 11 11 10 10 9 9 11 12 13 14 14 14 14 14 13 13 12 12 11 11 10 10 9 9 8 8 8 7 7 7 6 6 5 5 5 5
18 19 18 16 16 14 15 17 16 14 13 13 12 11 11 11 10 9 9 11 11 12 13 13 13 13 12 12 11 11 10 10 10 9 9 8 8 8 7 7 7 6 6 5 5 5 4 4 4

GFSSGP_925_temp_087.txt.gz
Temp
24 24 23 23 26 25 26 27 27 27 27 26 26 27 27 25 26 27 19 19 20 19 19 19 19 19 19 19 19 18 18 18 18 18 18 18 18 19 19 19 19 19 19 18 18 19 19 18 19
23 23 23 23 26 27 28 26 27 27 26 25 25 25 26 25 22 20 20 19 20 19 19 19 19 19 19 19 18 18 18 18 18 18 18 18 18 18 18 18 18 18 18 18 18 18 18 19 20
24 23 25 24 24 26 27 26 27 26 25 26 25 24 25 24 21 20 20 19 19 19 19 19 19 19 19 18 18 18 18 18 18 18 18 18 18 18 18 18 18 18 18 18 18 18 18 18 19
23 23 24 25 26 26 27 28 26 25 25 25 25 25 23 21 21 21 19 19 19 19 19 19 19 19 18 18 18 18 18 18 18 18 18 19 19 19 19 18 18 18 18 18 18 18 18 18 19
23 23 25 24 26 27 26 26 26 26 27 26 26 25 24 21 21 20 19 19 19 19 19 19 19 18 18 18 18 18 18 18 18 19 19 19 19 18 18 18 18 18 18 18 18 18 18 18 19
24 23 25 25 25 26 27 25 24 26 26 25 26 25 24 20 20 20 20 19 19 19 19 19 19 18 18 18 18 18 18 18 18 19 18 18 18 17 18 18 18 17 17 17 17 17 17 19 19
24 24 25 25 25 26 27 24 26 27 26 26 26 25 22 20 20 19 19 19 19 19 19 19 19 19 19 18 18 18 19 19 18 18 18 18 17 18 18 17 17 17 17 16 16 16 18 19 19
23 24 24 24 26 27 27 25 26 27 26 24 25 26 24 22 19 19 19 19 19 19 19 19 19 19 19 19 19 19 19 18 18 18 17 17 17 17 17 17 17 16 16 16 18 18 19 19 19
21 23 24 25 25 27 24 26 23 24 25 25 25 25 24 21 19 19 18 18 18 18 19 18 18 18 18 19 19 18 18 18 18 17 17 18 17 17 17 16 16 16 16 16 18 18 18 18 18
23 23 24 25 25 26 25 25 25 25 24 25 24 21 20 19 19 20 19 19 18 18 18 18 18 18 18 19 18 18 18 18 18 18 18 18 17 17 16 16 15 15 16 17 17 18 18 18 18
22 24 23 25 25 25 25 24 24 25 23 26 26 22 20 19 20 20 20 20 19 18 18 18 19 18 18 19 19 18 18 18 18 18 18 18 17 17 17 17 17 17 17 17 17 17 17 17 17
22 22 24 25 24 24 24 24 24 23 26 23 25 22 21 20 20 21 21 20 19 18 18 18 18 19 19 20 19 18 18 18 18 18 18 18 18 17 17 17 17 17 17 17 17 17 17 17 16
21 23 23 24 23 24 23 24 25 23 23 22 23 22 21 21 21 21 21 20 19 18 18 18 18 19 20 20 18 18 18 18 18 18 18 18 17 17 17 17 17 17 17 17 17 16 16 16 16
22 23 24 23 23 23 25 24 24 24 21 22 21 21 22 22 21 20 19 19 18 19 18 18 19 20 20 19 18 18 18 17 18 18 18 17 17 17 17 17 16 16 16 16 16 16 16 15 15
21 22 21 22 22 24 24 24 24 23 22 21 21 21 21 21 21 20 20 20 19 18 18 18 18 19 20 18 18 19 19 18 18 18 17 17 17 17 17 17 16 16 16 16 16 15 15 15 15
20 21 21 23 22 22 23 25 24 22 22 21 20 20 20 21 21 21 20 20 19 18 18 18 19 19 19 18 19 19 18 18 18 17 17 17 17 17 17 17 16 16 16 15 15 15 15 15 14
19 21 20 22 22 21 23 23 23 20 21 21 20 20 20 21 20 20 20 20 19 21 20 18 19 19 18 17 18 18 18 18 18 17 17 17 17 17 17 16 16 16 15 15 15 15 15 14 14
19 20 20 22 21 21 21 22 21 20 20 21 20 19 20 21 21 21 20 19 19 19 19 18 18 17 17 17 17 17 17 17 17 17 17 16 16 16 16 16 16 15 15 15 15 14 14 13 13
19 19 22 21 21 22 21 22 22 20 19 20 20 19 20 21 21 20 20 19 18 18 18 18 18 16 17 17 16 16 17 17 17 16 16 16 16 16 16 16 16 16 15 15 14 14 13 13 12
19 19 22 20 19 22 20 21 21 20 20 20 21 20 20 21 21 20 19 18 17 18 17 17 16 17 17 17 17 17 17 17 17 16 16 16 16 16 16 16 16 15 15 14 14 13 13 12 12
19 18 20 22 20 20 19 21 22 21 21 20 21 21 20 19 21 19 17 17 16 16 17 16 16 16 17 17 17 17 16 16 16 16 16 16 16 16 15 15 15 15 14 14 13 13 12 11 11
18 20 20 18 20 21 19 22 20 21 21 20 21 20 20 19 19 18 17 16 15 15 15 15 16 17 17 18 18 18 18 16 17 17 17 16 16 15 15 15 14 14 13 13 12 12 11 11 11
19 18 19 17 18 19 19 21 22 19 21 21 20 19 19 18 18 18 17 16 15 15 14 15 16 17 17 18 18 18 18 17 16 16 16 16 15 15 14 14 14 13 13 12 12 11 11 10 10
16 17 16 16 17 19 20 21 21 21 22 19 18 18 18 17 17 16 15 14 14 15 16 16 16 17 17 17 17 17 16 16 16 15 15 14 14 14 13 13 13 12 12 11 11 10 10 9 9
17 19 17 18 19 20 18 19 22 20 19 19 18 18 17 15 16 14 14 14 13 15 16 16 16 16 16 16 16 16 15 15 15 15 14 14 13 13 12 12 11 11 10 10 10 9 9 9 8
16 18 16 18 19 20 17 19 21 18 16 15 15 15 14 14 14 14 13 13 14 14 15 15 15 15 16 16 15 15 15 14 14 14 13 13 12 12 11 11 10 10 9 9 9 9 8 8 8
16 17 18 18 16 18 19 19 19 16 15 14 15 15 14 13 13 13 12 13 13 13 14 15 15 15 15 15 14 14 13 13 13 13 13 12 11 11 10 10 9 9 9 8 8 8 7 7 6
17 17 19 17 19 20 19 18 21 18 17 15 15 15 13 12 12 12 12 11 11 13 14 14 14 14 14 13 13 13 13 13 12 11 11 11 10 10 9 9 9 8 8 7 7 6 6 5 5
18 18 17 18 17 19 20 21 18 18 17 16 15 14 13 12 12 11 11 10 10 12 13 13 13 13 13 13 13 12 11 11 11 11 10 10 9 9 8 8 8 7 7 6 6 5 5 4 4
18 18 18 19 17 16 16 21 17 16 16 16 15 13 12 12 11 11 10 11 11 11 11 12 12 13 12 12 11 11 11 10 10 10 9 9 8 8 8 7 7 6 6 6 5 4 4 4 4

GFSSGP_925_temp_093.txt.gz
Temp
24 24 27 28 29 31 32 33 34 33 33 35 35 34 34 34 32 29 25 27 25 25 23 21 20 20 20 20 19 19 19 19 19 19 19 19 19 19 19 18 18 19 19 19 19 19 19 19 19
26 27 27 30 29 31 33 35 33 34 34 34 34 33 33 32 30 27 26 26 25 25 23 22 19 19 19 19 19 19 19 19 19 19 19 19 19 18 19 19 19 19 18 18 18 18 19 19 19
25 27 29 30 31 31 33 35 34 34 34 33 33 33 33 31 30 28 27 26 26 25 25 21 19 19 19 19 19 19 19 19 19 19 19 19 19 19 19 18 18 18 18 18 18 18 18 19 19
27 28 30 29 30 33 33 35 34 33 33 34 34 33 32 29 30 29 26 26 26 25 24 20 19 19 19 19 19 19 19 19 18 19 19 19 19 19 19 19 18 18 18 18 18 18 18 19 18
28 30 29 30 31 33 35 35 34 33 33 33 34 33 31 30 28 27 26 26 26 25 23 20 19 19 19 19 18 18 18 19 19 19 19 19 19 19 19 18 18 18 18 18 17 18 18 18 18
28 30 29 30 32 33 35 35 34 33 34 34 33 33 30 28 27 27 26 26 26 25 23 21 19 19 19 18 18 18 18 19 19 19 19 18 18 18 18 17 17 17 17 17 17 17 17 17 17
27 29 29 31 32 33 34 35 34 34 34 34 35 33 30 29 28 27 27 27 26 25 24 22 21 19 18 18 19 18 18 18 18 18 18 18 18 18 17 17 17 17 16 16 16 16 17 18 18
28 28 29 30 31 32 34 34 34 34 34 35 35 33 30 30 27 27 27 27 26 25 25 24 23 21 21 19 19 18 18 18 18 18 18 18 18 17 17 17 16 16 16 16 17 18 18 19 18
28 27 28 29 31 32 33 32 33 34 33 33 34 34 34 29 27 27 27 27 26 26 26 25 24 23 23 22 19 18 18 18 18 18 18 19 19 19 17 16 16 15 16 18 18 18 18 19 19
26 27 28 31 32 32 32 32 33 30 31 32 33 31 31 28 28 28 27 27 27 26 26 26 25 25 23 23 20 20 19 20 20 20 20 21 20 19 17 16 16 17 18 18 18 18 19 19 19
27 27 29 30 31 31 32 32 32 30 30 32 32 31 31 29 28 28 28 28 27 26 26 26 26 25 24 24 23 21 22 22 21 21 21 21 19 18 18 16 17 17 18 19 19 18 19 19 19
26 28 29 29 30 30 29 31 32 31 32 33 32 33 30 29 29 29 29 28 27 27 26 26 25 25 24 25 22 23 22 22 21 21 21 20 20 20 19 19 18 18 19 19 19 19 19 19 19
26 27 28 29 29 29 30 29 31 31 32 28 29 31 30 30 30 29 29 28 28 27 26 26 25 25 23 24 22 22 22 21 21 20 20 20 20 20 19 19 19 18 19 19 19 19 19 19 18
27 27 27 28 28 28 28 29 30 31 32 30 29 29 30 30 30 29 29 28 28 27 26 25 24 25 23 23 22 22 21 21 20 19 19 20 20 19 19 19 18 18 18 18 19 18 18 19 19
25 24 25 26 27 27 28 27 28 31 32 31 29 30 31 30 30 29 29 28 28 27 26 25 23 23 23 22 21 20 20 20 20 19 19 19 19 19 19 19 18 18 19 18 18 18 18 18 19
24 25 24 27 27 28 27 26 29 31 31 30 29 30 30 30 30 29 28 28 28 27 26 25 21 21 23 21 18 19 19 19 19 19 19 18 18 18 18 18 18 18 17 18 18 18 18 18 18
25 24 25 27 29 27 27 26 28 31 31 30 30 29 30 28 28 27 26 28 28 27 26 24 21 20 19 18 17 18 19 18 18 18 18 18 18 18 18 18 18 17 17 17 17 17 17 18 18
24 25 26 25 27 28 27 27 27 30 30 29 30 30 29 28 28 25 24 26 27 27 25 23 19 19 17 17 17 17 16 18 18 18 18 18 17 17 18 18 17 17 17 17 17 17 17 16 17
23 23 23 25 27 27 27 27 28 29 28 28 29 29 28 29 29 28 28 27 26 24 23 21 19 18 17 16 15 16 17 18 18 18 18 18 17 17 17 17 17 17 17 17 16 17 16 17 17
22 22 22 24 25 26 26 27 28 29 27 27 28 29 29 29 30 28 27 26 23 22 21 20 18 17 15 15 17 18 18 18 18 18 18 18 17 17 17 17 17 17 16 16 16 16 16 16 16
22 21 22 23 24 26 26 26 27 29 28 28 28 29 29 29 29 27 26 25 23 24 22 22 18 16 15 15 18 19 19 18 18 17 17 17 17 17 17 17 17 17 16 16 16 15 15 15 16
21 23 22 22 22 22 26 23 27 28 28 28 27 28 28 27 27 28 27 26 25 24 22 20 18 16 16 17 19 19 17 18 18 18 17 17 17 17 17 17 17 17 17 16 16 15 15 14 14
21 23 22 22 22 23 21 23 28 29 28 28 28 28 27 26 24 26 27 27 26 23 22 21 19 17 17 19 18 18 20 20 19 19 18 18 17 17 17 17 16 16 16 15 15 15 15 14 14
22 22 22 22 22 18 17 19 27 28 29 29 29 28 27 25 24 23 24 24 23 22 22 21 20 19 18 19 19 19 20 19 19 19 18 18 17 16 16 16 15 15 15 14 14 13 13 13 13
22 21 15 16 17 19 19 18 21 25 29 29 30 30 28 26 24 24 23 22 21 20 20 19 18 18 18 18 19 19 19 19 19 19 19 18 17 16 15 15 14 14 13 12 12 12 12 12 12
21 21 16 17 18 18 22 22 24 24 25 25 26 27 26 24 24 23 23 22 20 19 19 19 18 18 18 18 18 17 18 18 19 18 18 18 17 16 14 13 13 13 12 12 11 11 11 11 11
21 17 16 13 15 16 22 26 26 25 24 24 24 24 23 23 23 22 21 20 20 19 18 18 18 18 17 17 17 17 17 17 17 16 16 15 15 13 13 12 12 12 11 11 11 10 10 10 10
20 18 17 15 18 19 23 22 23 25 25 24 23 23 21 21 20 20 21 20 20 18 18 17 16 16 16 16 17 17 17 16 15 15 14 14 13 12 12 11 11 11 11 11 10 10 10 10 9
21 20 19 20 21 17 22 23 25 24 24 24 23 22 21 20 20 20 20 19 18 17 17 17 16 17 16 16 16 16 16 15 15 14 13 13 12 12 11 11 10 10 10 10 10 10 10 9 9
22 21 22 17 18 22 19 23 25 24 24 24 21 20 20 19 19 19 19 18 18 17 17 17 17 16 16 16 16 15 14 14 14 13 13 12 12 11 10 10 10 10 9 9 9 9 9 9 8

GFSSGP_925_temp_096.txt.gz
Temp
25 26 24 27 25 26 27 30 34 33 34 33 34 34 32 30 29 25 25 26 24 22 20 20 20 20 20 19 19 19 19 19 19 19 19 19 19 19 18 19 19 19 19 19 19 19 19 19 19
24 27 27 26 25 27 29 32 33 33 33 33 33 33 33 29 28 25 25 26 25 22 21 20 20 20 19 19 19 19 19 19 19 19 19 19 19 19 19 19 19 18 18 18 18 19 19 19 18
24 27 26 25 27 27 28 32 34 33 33 33 33 33 33 28 27 26 26 26 25 23 22 20 19 19 19 19 19 19 19 19 19 19 19 19 19 19 19 19 19 18 18 18 18 19 19 18 19
26 27 27 26 27 30 30 33 33 33 33 34 34 30 29 30 28 27 26 26 26 23 22 21 19 19 19 19 19 19 19 19 19 19 19 19 19 19 18 18 18 18 18 18 18 18 18 18 19
27 26 24 27 28 30 32 32 33 32 32 33 33 30 27 29 27 26 26 26 26 22 21 20 19 19 19 19 19 18 18 19 19 19 19 19 19 18 18 18 18 17 17 17 17 18 18 18 18
24 26 25 26 28 31 32 33 24 29 33 33 32 29 28 28 27 27 27 26 26 22 21 19 19 19 19 19 18 18 18 19 19 19 19 18 18 18 18 17 17 17 17 17 17 17 17 18 19
24 25 26 27 28 30 32 33 31 32 32 33 33 29 27 27 27 27 27 27 26 23 21 20 19 19 18 18 18 18 18 18 18 18 18 18 17 17 17 17 16 16 16 17 18 19 19 19 19
25 25 25 26 28 29 32 27 24 27 30 30 31 29 26 28 27 27 27 27 26 24 22 21 19 19 19 19 19 18 18 18 18 18 18 18 17 17 17 16 16 16 18 18 19 19 19 19 19
26 23 24 25 27 29 32 32 25 22 28 29 29 31 30 28 28 27 27 27 26 25 24 22 21 20 20 19 19 19 18 18 18 18 19 19 18 17 17 16 16 17 18 19 19 19 19 19 19
24 23 24 28 29 29 31 31 29 23 26 30 27 30 29 28 28 27 27 26 26 26 25 23 23 22 21 20 20 19 19 19 19 19 19 19 19 18 17 16 18 18 18 18 19 19 19 19 19
25 23 26 27 29 30 30 30 29 24 28 31 28 29 28 28 28 27 27 27 26 26 26 25 24 23 23 21 20 20 20 20 20 21 21 20 19 18 18 18 18 18 19 18 18 19 19 19 19
24 26 27 27 28 28 28 30 29 21 20 26 27 30 28 28 27 28 27 27 27 26 26 26 25 24 24 22 22 21 21 21 21 21 21 20 19 19 19 18 18 19 19 19 18 19 19 19 19
25 26 27 28 28 28 29 28 28 28 27 27 29 25 28 28 28 28 28 28 27 27 26 26 25 25 23 22 22 22 22 21 21 21 20 20 20 19 19 18 18 19 19 19 19 19 18 18 18
25 25 25 26 26 27 27 27 28 28 28 27 27 26 28 28 28 29 28 28 27 27 26 26 25 25 23 23 22 22 21 21 20 20 20 20 20 19 19 19 18 18 19 19 18 18 18 18 19
25 23 24 24 25 25 27 26 26 28 29 27 25 26 26 28 29 29 28 28 28 27 26 25 25 24 23 22 22 21 21 20 20 19 19 20 19 19 19 18 18 18 18 18 18 18 18 18 18
23 23 21 24 25 26 25 23 26 28 28 29 27 27 26 28 29 29 29 27 28 27 26 25 25 22 22 22 21 21 20 20 19 19 19 19 19 19 19 19 18 18 18 18 18 18 18 18 18
23 22 23 24 26 26 25 23 26 27 28 28 28 27 28 28 29 29 28 28 27 27 26 24 24 20 21 21 19 19 20 19 19 18 18 18 18 18 18 18 18 17 17 17 17 17 17 17 17
22 22 23 23 25 26 25 24 26 27 27 27 27 27 27 28 28 26 27 25 26 26 26 23 21 21 19 18 18 18 18 18 18 18 18 18 18 18 18 18 17 17 17 17 17 17 17 17 16
22 22 21 22 24 24 23 24 26 26 26 26 26 28 27 27 27 24 24 23 23 25 25 23 20 20 18 17 16 16 16 17 18 18 18 18 17 17 18 17 17 17 17 17 17 17 16 16 16
22 21 21 22 24 23 23 23 25 26 26 26 26 26 24 25 27 24 23 24 25 22 21 21 19 19 18 18 18 17 16 18 18 18 18 18 17 17 17 17 17 17 16 16 16 16 16 15 16
21 21 21 21 22 23 22 22 24 26 27 26 26 26 27 24 27 26 23 24 25 22 22 19 18 18 17 18 17 17 18 18 18 18 18 18 17 17 17 17 17 17 16 16 16 16 15 15 15
19 21 22 20 20 19 22 20 23 25 26 27 25 25 23 24 25 26 23 24 22 20 22 19 18 16 16 16 17 18 18 18 18 17 17 17 17 17 17 17 17 17 17 16 16 16 15 15 14
20 18 19 20 20 20 20 19 22 23 25 25 25 25 24 23 21 24 24 24 22 22 22 20 17 16 16 16 17 19 18 18 18 17 17 17 17 17 17 16 17 16 16 16 16 15 15 14 14
22 19 18 18 18 17 20 18 18 22 24 25 25 25 23 23 20 20 23 24 25 24 22 19 17 16 16 16 18 18 18 19 19 18 17 17 17 17 17 17 16 16 15 15 14 14 13 13 13
20 17 14 15 16 17 18 16 18 19 20 24 23 19 23 22 20 20 20 19 21 22 21 19 17 17 17 17 18 18 19 19 19 18 18 18 17 16 16 15 15 14 14 13 13 12 12 12 12
19 17 15 14 16 16 16 16 17 17 19 23 23 25 22 21 20 20 19 19 19 20 19 18 18 17 17 18 18 18 19 19 19 18 18 18 17 16 15 14 14 13 12 12 11 11 11 11 11
19 17 15 13 13 15 14 16 17 19 23 21 20 19 18 19 19 19 19 19 19 18 19 18 18 17 18 17 17 18 18 18 18 17 17 16 15 14 13 13 12 12 12 11 11 11 10 10 10
20 17 15 14 16 16 19 21 21 22 22 22 20 19 18 18 18 18 18 19 19 18 18 18 18 17 17 17 17 17 17 16 16 15 15 14 13 13 12 12 12 11 11 11 10 10 10 10 10
20 20 18 16 15 16 19 20 22 21 22 21 19 18 18 18 18 17 17 17 17 17 17 17 16 16 16 16 16 16 16 15 15 14 14 13 12 12 11 11 11 10 10 10 10 9 9 9 9
22 21 21 16 16 15 15 19 22 22 21 19 19 17 17 17 17 16 16 17 17 16 16 16 16 16 16 16 16 15 15 15 14 13 13 12 12 11 11 10 10 10 9 9 9 9 9 8 8

GFSSGP_925_temp_102.txt.gz
Temp
24 23 22 21 21 21 22 23 26 27 28 30 29 29 27 25 27 24 21 20 22 21 20 20 20 20 20 20 20 20 19 19 19 19 19 19 19 18 18 18 18 18 19 19 19 19 19 19 19
24 23 23 20 21 21 21 24 26 26 28 28 27 25 26 24 23 19 20 21 22 21 21 20 20 20 19 20 19 19 19 19 19 19 19 19 19 18 18 18 18 18 19 19 19 18 18 18 19
23 23 21 21 20 21 22 26 28 28 29 29 29 26 25 23 22 21 22 20 21 20 21 20 20 19 19 19 19 19 19 19 18 19 19 18 18 19 18 18 18 18 19 18 18 18 18 18 18
23 22 21 21 21 22 24 25 26 28 30 27 27 25 24 24 23 23 21 20 21 20 21 20 19 19 19 19 18 18 18 18 19 18 19 19 19 18 18 18 18 18 18 18 18 18 18 18 18
22 20 21 21 22 23 24 25 27 28 27 26 26 25 23 24 24 22 21 21 21 20 20 20 19 19 18 18 18 18 18 18 19 19 19 19 19 18 18 17 17 18 18 18 17 17 18 18 18
20 20 20 21 23 25 25 26 27 26 25 24 24 24 23 24 21 21 21 21 21 20 20 19 19 18 19 19 18 18 18 18 19 18 18 18 18 18 17 17 17 17 17 17 17 17 18 18 18
20 19 20 22 23 24 26 24 24 22 24 22 22 24 22 22 22 21 21 21 20 20 19 19 18 18 18 18 19 19 18 18 19 18 18 18 17 17 17 17 17 17 17 17 17 18 18 18 17
20 19 20 21 22 23 27 25 23 24 24 22 24 24 23 23 21 20 20 20 19 19 19 19 18 18 18 19 19 19 18 18 18 18 17 17 17 16 16 16 16 17 17 17 18 18 18 18 18
22 19 18 21 23 24 25 24 23 22 23 23 23 23 25 25 21 19 19 18 18 18 19 18 18 18 18 18 19 19 18 18 18 17 17 17 17 17 18 17 17 17 17 18 18 18 19 19 18
20 18 20 23 23 23 24 25 24 22 22 22 22 24 25 25 21 20 19 18 18 18 18 18 18 18 18 18 19 18 18 18 18 18 18 18 18 18 18 17 17 17 17 18 18 18 18 18 18
21 19 22 23 23 24 24 24 25 22 21 21 22 23 22 23 23 21 20 19 18 18 18 18 18 18 18 18 18 19 19 18 18 18 18 18 18 18 18 18 18 18 18 18 19 18 18 18 18
19 21 21 22 23 23 23 24 24 22 24 23 22 21 20 20 22 22 21 20 19 18 19 19 19 19 19 19 19 19 19 18 18 18 18 18 19 19 18 18 18 18 18 18 18 18 18 18 18
19 21 21 22 21 22 23 23 24 23 23 22 22 22 22 22 19 19 22 21 20 19 19 19 19 19 19 19 19 20 19 19 18 18 18 18 19 19 18 18 18 18 18 18 18 18 18 18 18
19 19 19 20 20 21 22 22 24 24 22 21 21 21 21 20 19 19 20 22 21 20 20 19 19 19 19 20 19 20 20 20 19 19 18 18 19 19 18 18 18 18 18 18 18 18 18 18 17
20 18 19 20 20 21 23 21 22 24 22 21 21 21 20 20 20 20 20 23 22 21 21 20 20 20 20 20 20 20 20 20 20 19 19 19 19 19 18 18 18 18 18 18 18 18 18 18 17
19 18 17 19 20 22 21 19 21 22 23 22 20 20 21 20 21 23 22 23 22 22 21 21 20 20 20 21 20 20 20 20 20 20 19 19 19 19 18 18 18 18 18 18 18 18 18 17 17
17 16 17 18 21 21 21 19 21 20 21 22 21 20 21 22 21 21 23 23 22 22 22 21 21 20 21 21 20 21 21 21 20 20 20 19 19 19 18 18 18 18 18 18 18 17 17 17 17
16 16 17 17 20 20 18 18 19 20 21 20 22 20 21 22 22 21 22 22 23 22 21 20 21 21 22 21 21 21 20 19 20 20 19 19 19 18 18 18 18 18 18 17 17 17 17 16 16
18 17 17 18 19 19 19 19 18 19 19 19 19 20 19 22 24 22 20 21 22 21 19 21 21 21 21 20 19 18 18 18 18 19 19 19 19 18 18 18 18 18 17 17 17 16 16 16 16
18 17 17 17 19 19 18 18 18 19 19 19 20 19 20 21 20 19 19 20 20 20 19 20 20 20 19 18 18 17 17 17 18 18 18 18 18 18 18 18 17 17 17 17 16 16 16 15 15
18 17 17 17 18 18 18 18 18 19 19 19 19 19 20 20 19 20 19 20 20 20 19 18 19 18 18 17 17 16 16 16 16 16 18 18 18 18 18 17 17 17 17 16 16 16 16 15 14
17 19 18 18 17 16 18 16 16 17 18 19 17 16 18 18 18 19 19 19 19 20 19 17 16 16 17 17 17 17 15 15 16 15 17 18 17 17 17 17 17 17 16 16 16 16 15 15 15
18 19 17 18 17 14 16 14 15 17 18 17 16 16 17 18 18 19 19 19 20 19 17 16 16 15 15 17 16 16 17 16 16 16 17 17 17 17 17 17 17 16 16 16 16 15 15 15 14
19 17 15 15 15 14 14 15 14 14 14 15 16 16 16 19 18 18 19 19 19 18 17 16 15 15 16 16 15 17 17 16 15 16 16 16 17 17 17 16 16 16 16 16 15 15 14 14 13
18 15 13 13 14 14 13 14 14 15 15 14 15 15 15 14 16 17 17 17 17 17 16 16 17 16 15 14 15 16 14 13 15 15 15 16 16 16 16 16 16 16 15 15 14 14 13 12 12
17 15 14 13 14 14 14 14 15 15 15 14 15 14 14 14 14 15 16 17 16 17 17 16 16 15 15 14 15 15 13 14 15 15 15 16 17 16 16 16 15 14 14 13 13 12 12 11 11
18 14 13 12 13 13 15 16 15 17 16 15 14 14 14 14 14 14 14 15 16 16 16 15 15 15 14 14 13 14 15 14 15 16 16 16 16 16 15 15 14 13 13 12 12 11 11 10 10
18 14 15 14 15 13 16 17 16 17 15 14 14 14 14 13 13 13 13 13 14 15 15 15 15 14 14 15 15 15 15 15 16 16 16 15 14 14 13 13 13 12 11 11 11 10 10 9 9
16 16 16 14 15 15 13 15 17 16 16 15 13 13 12 13 12 12 12 13 14 15 15 15 15 15 15 15 15 15 15 15 15 14 14 13 13 13 12 12 11 11 11 10 10 9 9 9 8
19 19 17 15 15 15 15 15 15 14 14 14 14 14 13 13 13 12 12 12 13 13 14 15 14 15 15 15 15 15 14 14 14 13 13 13 12 12 12 11 11 10 10 9 9 9 8 8 8

GFSSGP_925_temp_105.txt.gz
Temp
22 22 22 21 21 20 21 22 23 25 27 28 27 27 27 25 26 24 20 20 21 20 21 20 20 20 20 20 20 20 19 19 19 19 20 19 19 19 19 18 19 19 19 19 19 19 19 19 18
21 22 22 19 20 21 21 22 25 26 26 25 27 25 26 24 21 19 19 20 21 21 20 20 20 21 20 20 20 20 19 19 20 20 19 19 18 18 18 18 19 19 19 19 18 18 19 18 18
22 22 21 20 20 20 21 23 26 26 26 27 27 24 24 22 20 19 21 20 21 20 20 20 20 21 20 19 20 20 19 19 19 19 19 18 18 18 18 18 19 19 18 18 18 18 18 18 18
22 21 20 21 20 21 22 24 24 26 27 26 27 25 24 22 20 21 20 20 20 20 20 20 20 20 19 19 19 19 19 18 18 18 19 19 18 18 19 19 18 18 18 18 18 18 18 18 17
21 19 20 20 21 22 23 24 26 26 27 25 26 24 22 22 22 20 19 20 21 20 21 20 19 19 19 19 19 18 18 18 18 19 19 19 18 18 18 18 18 18 18 18 18 18 18 17 17
19 19 20 21 22 24 24 25 26 26 23 24 25 24 23 21 20 19 19 19 20 20 20 19 19 19 18 19 18 18 18 18 19 19 18 19 18 18 17 17 17 17 17 17 18 18 18 17 17
19 18 19 20 21 23 26 24 25 24 23 24 23 24 21 19 19 19 19 19 20 20 20 19 19 18 18 18 18 18 18 19 19 18 19 18 18 17 17 17 17 17 17 17 18 18 17 16 16
18 18 19 20 21 22 24 25 23 23 24 22 22 23 21 20 20 19 19 19 19 19 19 19 18 18 18 18 18 18 19 18 18 18 18 17 17 17 17 17 17 17 18 18 18 18 17 16 17
20 18 17 20 22 23 24 24 23 22 22 22 23 23 22 20 20 19 18 18 18 18 19 19 18 18 18 18 19 19 18 18 18 17 17 17 16 17 17 17 17 17 17 17 17 17 16 18 18
19 17 19 21 22 22 23 24 23 23 22 22 22 23 21 19 19 18 18 18 17 17 18 18 18 18 18 18 18 18 18 18 18 17 18 17 17 17 17 17 17 17 17 17 18 18 18 18 18
19 18 21 22 22 22 23 23 23 22 21 21 22 21 20 19 19 19 19 18 18 18 18 18 18 18 18 18 18 18 18 18 18 18 18 18 18 17 17 17 17 18 18 18 18 18 18 18 18
19 20 20 20 22 21 22 23 23 21 23 22 21 21 21 20 20 19 19 18 17 17 18 18 18 18 18 18 18 18 18 18 18 18 18 18 18 18 17 18 18 18 18 18 18 18 18 17 17
18 20 20 20 19 20 21 21 22 22 22 22 21 21 21 21 20 20 19 18 18 17 17 18 18 18 18 18 18 18 18 18 18 18 18 18 18 18 18 18 18 18 18 18 18 18 17 17 17
19 18 18 18 19 19 21 21 22 23 22 21 21 20 20 19 19 19 19 19 19 18 18 19 18 18 18 18 19 19 19 18 18 18 18 18 19 18 18 18 18 18 18 18 18 18 17 17 17
18 18 18 19 20 19 20 20 21 21 22 20 20 20 20 19 19 19 20 19 20 19 19 19 18 18 18 19 19 19 19 18 18 18 18 18 18 18 18 18 18 18 18 18 18 17 17 17 17
18 17 16 19 20 21 21 18 20 21 21 21 19 18 19 19 19 19 19 20 20 20 19 20 18 17 18 18 19 19 19 19 19 18 18 18 18 18 18 18 18 18 18 18 17 17 17 17 17
16 16 16 17 19 19 20 18 19 20 20 20 19 18 19 19 19 20 20 20 21 20 19 20 19 18 18 19 20 19 19 19 20 19 18 18 18 18 18 18 18 18 18 17 17 17 17 16 16
16 15 16 16 18 19 17 16 17 18 18 18 18 18 17 20 20 20 19 19 20 20 20 19 19 19 20 19 19 19 19 19 19 19 19 19 19 18 18 18 18 17 17 17 17 17 16 16 16
16 16 15 16 17 17 17 17 17 17 17 17 17 17 17 18 20 21 20 20 20 19 19 19 19 19 19 19 18 18 18 18 19 19 19 19 19 18 18 18 18 17 17 17 17 16 16 16 16
17 16 16 16 18 18 16 17 17 17 18 18 18 17 17 17 18 21 19 18 19 19 19 18 18 18 19 17 17 16 17 18 18 18 19 19 19 18 18 18 17 17 17 17 17 16 16 15 15
17 16 16 16 17 17 16 15 16 18 17 18 18 16 16 16 18 18 18 18 18 18 18 18 18 17 16 17 16 16 16 16 16 16 17 18 18 18 18 18 18 17 17 17 16 16 16 15 14
16 18 18 17 16 15 15 14 15 17 16 16 15 14 14 14 17 18 18 18 18 18 18 18 17 15 15 17 15 16 15 14 13 13 15 13 17 18 17 17 17 17 17 16 16 16 16 15 15
17 17 16 15 14 14 14 13 13 14 14 14 14 14 15 14 16 17 18 18 18 19 18 17 15 14 13 14 14 14 14 13 13 13 13 15 16 17 17 17 17 17 16 16 16 15 15 15 14
18 16 14 14 13 13 13 13 13 13 14 14 14 13 13 14 17 17 18 19 18 19 19 18 17 15 14 14 14 14 13 14 15 13 13 12 15 16 16 16 16 16 16 16 15 15 15 14 14
16 14 14 12 12 15 13 13 13 13 13 14 13 12 13 13 15 17 17 17 18 18 17 15 15 15 14 14 14 14 14 14 15 14 13 13 13 14 16 16 16 16 15 15 15 14 13 13 12
16 14 14 12 13 13 14 14 15 15 15 15 14 14 15 15 16 15 16 16 16 17 16 15 15 15 14 14 14 14 15 14 13 13 13 14 14 14 16 15 15 15 15 14 13 13 12 11 11
17 13 13 13 13 12 14 17 15 17 16 15 14 13 13 13 14 14 14 15 15 16 16 15 15 14 14 14 15 15 15 13 12 13 14 14 14 14 15 15 14 14 13 13 12 11 11 10 10
17 13 14 13 15 15 14 15 15 16 15 15 15 12 12 12 12 12 12 13 13 14 14 15 15 14 13 13 13 13 12 13 13 14 14 14 14 14 14 13 13 12 12 11 11 10 10 10 9
15 15 14 14 14 14 13 15 15 14 15 14 13 11 11 11 11 11 11 11 12 13 14 14 14 14 13 13 13 13 13 14 14 14 14 14 13 13 13 12 12 11 11 10 10 10 9 9 8
16 18 15 13 13 15 14 14 14 12 13 14 13 12 11 11 12 12 12 12 11 13 12 13 13 13 13 13 13 13 13 13 13 12 12 12 12 12 12 11 11 11 10 10 9 9 8 8 8

GFSSGP_925_temp_108.txt.gz
Temp
21 22 21 21 20 19 20 21 23 25 25 26 26 25 25 24 25 24 19 19 21 21 20 20 20 20 20 20 20 20 20 19 19 19 19 19 19 19 18 19 19 19 19 19 19 19 18 18 18
22 21 22 18 20 20 20 22 23 25 26 24 26 25 24 24 20 19 19 19 21 21 21 20 20 20 20 20 20 19 19 19 19 20 19 19 19 18 18 19 19 19 19 18 18 18 18 18 18
22 21 20 20 19 20 21 22 23 25 26 26 26 23 23 23 19 19 20 19 20 20 20 20 20 20 20 20 19 19 19 19 20 19 18 18 18 18 18 19 18 19 18 19 18 18 18 17 17
21 20 19 21 20 21 22 24 24 24 27 26 26 25 22 21 19 20 19 19 20 20 20 20 20 20 20 20 20 20 19 19 19 18 18 18 18 18 19 19 18 18 18 18 18 18 17 17 17
21 18 19 21 20 22 22 23 23 24 26 25 24 25 22 20 20 20 19 19 19 20 20 20 20 20 19 19 20 19 19 18 18 18 19 19 19 19 19 18 18 18 18 18 18 18 17 17 17
18 18 21 21 20 23 24 24 25 25 24 24 25 23 21 18 19 19 19 19 20 20 20 20 20 20 19 19 19 19 18 18 18 19 19 19 19 18 18 18 18 18 18 18 18 17 17 16 16
18 18 19 20 20 23 25 24 23 22 22 23 22 23 19 19 18 19 19 20 20 20 20 19 19 19 19 19 18 18 18 18 19 18 19 19 18 18 17 17 17 17 17 18 17 17 16 16 16
17 18 19 19 20 21 24 24 23 23 23 22 22 21 20 19 18 19 19 19 20 20 20 19 19 18 18 18 18 18 18 18 18 19 19 18 18 17 17 17 17 17 17 17 17 16 16 16 15
18 17 16 19 21 22 24 23 23 22 21 22 22 22 21 19 18 18 18 18 19 19 19 19 18 18 18 18 18 18 18 18 18 18 18 17 17 17 17 17 17 18 17 17 17 16 16 15 15
18 16 18 19 21 21 22 23 23 23 22 21 22 21 19 18 18 18 18 19 18 18 18 18 18 18 18 18 18 18 18 18 18 18 17 17 17 17 17 17 17 17 17 16 16 17 18 18 17
18 17 19 20 21 21 21 21 23 22 21 21 22 20 19 18 18 18 18 19 19 18 18 18 18 18 18 18 18 18 18 18 18 17 17 17 17 17 17 17 17 17 17 17 18 17 17 17 17
19 18 19 19 20 20 20 21 22 21 21 22 21 20 19 18 19 18 18 18 18 17 18 18 18 18 18 18 18 18 17 18 18 17 17 17 17 17 17 17 17 18 18 18 17 17 17 17 17
17 18 19 19 18 18 19 19 20 21 21 21 21 20 19 19 19 19 19 18 17 17 18 18 18 18 18 18 18 18 17 18 18 18 18 17 17 17 17 18 18 18 18 18 17 17 17 17 17
18 18 17 17 18 18 19 19 20 21 21 20 20 19 19 19 19 19 18 17 17 17 18 19 18 18 18 18 18 18 18 18 18 18 18 18 18 18 18 18 18 18 18 17 17 17 17 17 17
18 17 17 19 19 19 19 19 19 20 20 20 19 19 19 19 19 19 18 18 18 18 17 19 18 18 18 18 18 18 18 18 18 18 18 18 18 18 18 18 18 18 17 17 17 17 17 17 16
17 17 16 18 18 20 20 17 19 19 19 19 19 18 18 18 18 19 19 19 18 18 17 17 18 18 18 18 18 18 18 18 18 18 17 18 18 18 18 18 18 17 17 17 17 17 16 16 16
15 15 15 16 18 18 19 17 18 19 18 18 17 17 17 17 18 19 19 19 19 19 17 17 19 18 18 18 18 18 18 18 18 18 17 18 18 18 18 18 18 17 17 17 17 17 17 16 16
15 15 15 14 17 18 16 15 16 17 16 16 16 16 16 16 18 19 19 19 19 19 18 18 18 18 18 18 17 17 17 17 17 18 17 18 18 18 18 18 18 17 17 17 17 17 16 16 16
16 15 15 16 17 16 16 15 16 17 16 15 15 15 16 16 18 19 19 18 19 19 19 19 18 18 17 17 17 16 17 17 17 17 17 17 18 18 17 18 17 17 17 17 17 16 16 15 15
16 15 15 16 17 16 16 16 17 16 17 17 17 16 15 15 16 17 19 18 18 19 18 18 18 18 19 19 18 16 16 17 17 17 17 17 17 18 18 18 17 17 17 17 16 16 15 15 15
17 16 15 16 16 16 15 15 15 16 16 16 15 14 14 14 14 15 18 18 17 18 17 18 18 18 20 17 15 16 15 15 15 16 16 16 16 17 17 17 17 17 17 17 16 16 16 15 14
15 18 16 15 14 14 15 13 14 14 15 14 13 12 12 12 13 14 17 17 17 17 17 17 19 19 17 16 15 15 14 14 14 15 14 14 14 15 16 17 17 17 17 16 16 16 15 15 14
17 16 15 15 13 13 14 13 12 12 14 14 14 14 13 13 12 14 16 18 18 17 17 17 17 17 17 16 15 14 14 13 12 12 12 10 10 12 15 16 17 16 16 16 16 16 15 15 15
17 16 14 13 12 13 13 12 12 13 13 13 14 14 15 14 14 15 17 17 17 17 16 16 16 15 15 14 13 13 12 11 12 11 10 11 11 11 13 15 16 16 16 16 15 15 15 14 14
15 13 12 12 11 12 13 13 12 14 14 14 14 14 15 14 15 15 15 16 16 16 16 15 15 14 13 14 13 13 13 13 13 12 12 10 10 11 13 14 15 15 16 15 15 15 14 14 13
14 14 12 15 14 13 14 14 14 14 16 15 14 14 14 14 14 15 15 15 15 16 15 15 15 14 14 13 13 13 13 14 13 13 13 12 11 12 14 14 15 15 15 15 14 13 13 12 12
16 13 13 13 10 12 11 16 14 14 14 14 14 13 13 12 13 13 14 14 16 15 15 15 15 14 14 14 13 14 14 13 14 12 12 11 12 13 13 13 14 15 14 13 13 12 12 11 10
15 13 14 11 11 14 13 13 15 14 13 14 13 12 11 11 11 12 11 12 13 14 14 15 14 14 13 14 14 13 13 13 12 12 11 12 12 13 13 13 13 13 12 12 11 11 11 10 10
14 15 14 13 13 13 15 14 15 13 13 12 12 12 11 11 12 12 11 11 11 12 12 12 13 13 13 12 13 12 11 12 12 12 12 13 13 13 13 12 12 11 11 11 10 10 10 9 9
16 16 13 12 13 12 13 14 13 12 13 13 13 12 10 11 11 12 11 11 11 11 11 11 11 12 12 12 12 12 12 12 12 12 12 12 11 11 11 11 11 11 10 10 9 9 9 8 8

GFSSGP_925_temp_111.txt.gz
Temp
21 22 21 21 24 23 23 25 24 26 27 27 26 27 28 27 27 28 18 19 21 21 20 21 21 21 20 20 20 20 20 19 19 19 19 19 19 19 19 19 19 19 19 19 19 18 18 18 18
21 21 21 20 24 24 25 24 25 26 27 26 26 26 26 26 22 20 19 18 20 20 21 21 21 21 20 20 20 20 20 19 19 19 19 19 19 19 19 19 19 19 19 19 18 18 18 18 17
21 21 23 23 22 24 24 24 25 26 26 27 27 25 25 24 20 20 19 19 20 20 20 20 21 20 20 20 20 19 19 19 19 19 19 19 18 19 19 19 19 19 18 18 18 18 17 17 17
21 21 22 22 22 22 24 25 25 26 28 27 26 26 23 21 21 20 19 19 20 20 20 20 20 20 20 20 19 19 19 19 19 18 18 18 18 19 19 18 18 19 18 18 18 17 17 17 17
20 21 22 22 22 22 24 24 25 26 26 27 26 25 23 20 19 19 19 19 20 20 20 20 20 20 20 19 19 20 20 19 18 18 18 19 19 19 18 18 18 18 18 18 17 17 17 17 17
21 21 21 22 22 23 24 25 25 25 25 25 26 24 22 18 19 19 19 20 20 20 20 20 20 20 20 19 19 20 19 18 18 19 18 19 19 19 18 18 18 18 18 18 17 17 17 16 16
21 21 21 21 21 23 24 24 24 24 24 24 23 25 21 20 18 19 19 19 19 20 20 20 20 19 19 19 19 19 18 18 18 19 19 19 18 18 18 18 18 18 18 17 17 16 16 16 16
19 21 19 20 22 22 25 25 24 24 24 23 23 25 24 21 18 19 18 18 19 19 19 20 20 19 19 19 19 18 18 18 18 18 19 19 19 18 18 17 17 17 17 17 16 16 16 15 15
19 20 19 20 21 23 23 23 24 23 24 23 24 23 22 19 18 18 18 18 18 19 19 19 19 19 18 19 18 18 18 18 18 18 19 18 17 17 17 17 17 17 17 16 16 15 15 15 15
19 19 19 20 21 22 22 22 23 23 24 24 23 20 19 19 18 19 19 19 19 18 18 19 18 18 18 18 18 18 18 18 18 18 18 17 16 17 17 17 17 17 17 16 15 17 17 17 15
18 19 19 21 21 21 21 22 23 23 22 23 24 23 19 19 19 19 19 20 19 18 19 18 18 18 18 18 18 18 18 18 18 18 17 17 16 17 17 17 17 16 16 16 17 17 17 16 16
19 19 19 20 20 20 20 22 22 22 23 24 24 23 20 20 20 19 19 20 19 18 18 18 18 18 17 17 18 18 18 18 18 17 17 17 17 17 17 17 17 17 17 17 17 17 17 17 16
18 19 19 19 18 18 19 19 21 21 22 23 21 22 20 20 19 19 19 19 19 18 17 17 18 18 17 18 18 18 18 18 18 17 17 17 17 17 17 17 17 17 17 17 17 17 17 16 16
18 18 18 18 19 19 19 20 20 22 21 21 21 22 22 20 20 19 19 19 19 18 17 17 17 18 18 18 18 18 18 17 17 17 18 17 17 17 17 17 17 17 17 17 17 17 17 16 16
18 18 18 19 20 19 19 20 20 21 20 21 21 20 21 20 20 20 19 19 18 18 18 17 17 17 17 18 18 17 17 17 17 18 17 17 17 17 18 18 17 17 17 17 17 16 16 16 16
18 17 18 20 18 20 20 19 20 21 20 21 21 20 20 20 20 20 19 19 18 17 17 17 17 17 17 18 18 18 17 17 18 18 17 18 17 17 18 18 17 17 17 17 17 16 16 16 16
16 18 17 17 18 19 19 19 20 20 20 19 21 20 20 20 19 19 19 19 18 18 17 17 17 17 17 17 17 18 17 17 18 17 17 18 17 17 18 18 17 17 17 17 17 16 16 16 16
17 17 17 17 18 18 18 18 19 19 18 19 19 20 19 19 21 19 19 19 18 17 17 16 17 17 17 17 18 18 17 17 17 17 17 17 17 17 17 17 17 17 17 17 16 17 16 16 15
17 16 16 18 18 17 18 18 18 19 18 18 19 19 19 19 20 19 18 18 18 17 17 17 17 17 16 17 17 17 17 16 16 17 17 16 17 17 17 17 17 17 17 17 16 16 16 15 15
17 17 17 17 18 17 17 17 17 18 17 17 17 17 17 17 18 18 18 18 18 17 17 17 17 18 17 16 16 16 16 16 17 16 16 16 16 16 17 17 17 17 17 16 16 16 15 15 14
18 17 17 16 16 16 16 17 17 17 16 17 17 15 16 15 16 17 17 18 17 17 17 16 17 17 16 20 17 16 15 14 14 14 14 14 15 15 15 16 17 17 16 17 16 16 16 15 14
16 17 17 16 16 16 16 15 16 16 16 16 16 16 15 15 15 15 16 18 17 17 16 17 18 17 17 18 18 18 15 13 12 13 12 13 13 12 12 14 16 17 16 16 16 16 16 16 14
18 17 16 15 15 15 15 14 16 15 14 13 15 16 16 16 16 16 16 17 18 17 16 17 17 17 17 17 18 15 14 12 10 9 8 10 11 11 11 11 14 15 16 16 16 16 15 15 15
17 16 15 14 14 16 14 13 16 14 13 13 15 15 15 16 17 17 16 17 17 16 16 16 16 16 15 15 14 14 12 11 9 9 9 10 11 11 11 12 13 14 15 16 16 15 15 15 15
16 15 15 17 15 16 15 15 15 12 14 14 14 14 14 14 15 16 17 17 16 16 16 15 15 14 14 14 13 13 12 12 12 12 10 11 10 9 9 11 12 13 15 15 15 15 15 14 14
15 14 14 14 14 15 15 15 14 13 14 15 14 13 13 13 13 14 16 16 16 15 15 15 14 14 14 13 13 12 13 13 12 12 12 11 10 10 11 11 13 13 14 14 14 14 14 13 13
16 15 14 13 12 14 14 16 13 13 14 14 14 13 12 12 12 12 13 15 15 15 15 14 14 14 14 14 14 13 13 14 12 13 12 12 11 11 10 11 12 12 11 13 13 13 12 12 11
16 14 15 13 13 15 16 15 15 12 12 13 13 12 12 12 12 11 11 12 13 14 14 14 14 14 15 13 13 13 13 13 12 12 12 11 10 10 10 11 11 12 11 12 12 11 11 11 10
16 16 15 14 14 15 15 16 15 13 12 13 13 13 11 11 11 11 11 10 10 10 11 12 13 12 13 12 13 13 12 12 12 11 11 10 11 11 11 11 11 11 11 11 11 11 10 10 9
15 15 14 15 15 14 14 16 14 13 12 13 13 13 12 11 11 11 11 11 10 9 9 9 10 11 11 11 11 11 11 11 11 11 11 11 11 10 10 10 10 10 10 10 10 10 9 9 8

GFSSGP_925_temp_114.txt.gz
Temp
22 22 22 25 27 28 29 29 30 30 30 31 31 31 32 33 32 31 22 23 25 24 23 21 21 21 21 20 20 20 20 20 19 19 19 19 19 19 19 19 19 19 19 19 19 18 19 18 18
22 22 24 27 27 28 30 30 29 31 30 31 30 30 30 32 28 24 23 22 23 24 24 23 21 21 21 20 20 20 20 20 20 19 19 19 19 19 19 19 19 19 19 18 18 18 18 18 18
22 23 27 27 28 28 29 30 30 30 30 31 31 30 30 29 26 25 23 22 24 24 23 23 21 21 21 20 20 20 20 19 19 19 19 19 19 19 19 19 19 19 18 18 18 18 18 17 17
23 25 27 26 27 28 29 30 29 29 31 31 30 30 28 25 25 25 23 23 24 24 23 21 21 21 21 20 20 20 20 19 19 19 19 19 19 19 19 19 19 19 18 18 18 17 17 17 17
23 26 26 26 28 29 28 29 29 29 30 30 30 30 29 25 23 23 23 24 24 24 24 22 21 20 20 20 20 19 19 19 19 19 18 19 19 19 19 19 19 18 18 18 17 17 17 17 17
25 26 26 27 28 28 28 29 29 28 30 30 29 30 28 23 23 23 23 24 24 24 24 23 20 20 20 20 19 19 19 19 19 19 19 19 19 19 19 18 18 18 18 17 17 17 17 16 16
25 25 26 27 27 27 28 29 28 28 28 29 28 29 27 24 21 23 23 24 24 24 23 22 21 20 20 20 20 20 20 19 19 19 19 19 18 18 18 18 18 18 17 17 17 16 16 16 16
25 25 25 25 25 26 28 28 27 27 28 27 27 29 28 26 21 22 23 23 24 24 24 23 22 22 21 20 19 19 19 18 19 19 19 19 18 18 18 18 18 18 17 17 16 16 16 16 16
23 24 24 25 25 26 27 26 27 27 27 27 28 28 26 24 21 21 22 22 23 24 24 23 22 22 22 22 20 19 19 19 19 19 19 19 19 18 19 19 18 17 17 16 16 16 15 15 15
24 23 24 24 25 25 26 26 26 25 27 27 27 27 24 23 21 22 21 23 23 23 23 23 23 23 23 22 21 21 20 19 19 20 20 19 19 20 19 18 17 17 16 16 15 15 16 18 18
23 23 23 24 24 25 24 25 26 25 25 26 26 28 25 23 21 22 21 23 23 23 23 23 23 22 22 22 22 21 21 19 19 20 20 20 20 18 19 18 18 18 17 17 16 17 18 18 18
22 23 23 23 24 23 23 25 24 25 25 27 27 28 27 25 23 21 22 23 24 23 22 23 22 22 22 22 22 21 20 19 20 20 20 19 19 19 19 19 19 18 18 18 18 17 17 18 18
22 23 23 23 23 23 23 23 23 24 26 26 27 26 26 25 25 22 22 23 23 23 22 21 21 21 22 21 21 19 18 19 20 20 19 19 19 19 19 18 18 18 18 18 18 18 18 18 18
22 22 22 23 23 23 22 23 23 25 25 25 25 25 26 26 25 24 22 21 22 23 21 20 21 21 22 21 20 18 18 18 19 19 19 19 19 19 18 18 18 18 18 18 18 18 18 18 18
22 21 23 23 23 22 22 22 23 25 25 25 25 26 25 26 26 25 23 22 22 22 21 21 21 21 21 21 20 18 18 18 18 18 18 18 18 18 18 18 18 18 18 18 18 18 18 17 17
22 22 22 24 22 23 22 22 24 25 24 24 25 26 25 25 25 25 23 21 22 21 21 21 20 20 21 20 19 18 18 18 18 18 18 18 17 18 18 18 18 17 17 17 17 17 17 17 17
22 22 22 22 23 22 22 21 23 24 23 23 24 25 25 25 25 24 23 22 22 20 19 19 20 20 20 19 18 18 18 18 18 19 18 17 17 17 18 18 17 17 17 17 17 17 17 17 17
21 22 22 22 22 22 21 21 22 22 22 22 23 24 25 25 26 25 22 21 21 21 20 19 19 19 19 18 17 17 17 18 18 19 18 18 17 16 17 17 17 17 16 17 17 17 17 18 17
21 21 21 22 22 20 21 20 21 20 21 21 21 23 24 23 24 23 22 21 20 19 19 19 18 19 18 17 16 16 16 17 17 18 17 17 16 17 16 16 16 16 17 17 17 17 16 16 17
22 22 22 22 20 20 20 20 20 20 20 20 20 20 21 22 24 24 22 21 20 20 18 18 18 18 18 16 17 16 16 15 16 16 16 15 16 17 16 15 15 16 17 16 16 16 17 16 16
23 21 20 20 20 20 19 20 20 21 20 20 20 20 21 21 21 23 22 22 21 20 19 19 18 18 17 16 16 16 15 14 13 13 14 15 16 15 15 15 15 15 15 15 15 15 16 16 14
22 21 20 19 20 20 19 21 21 20 18 18 19 18 19 20 21 22 22 21 21 20 19 19 18 18 17 16 16 15 15 13 13 14 14 14 14 15 14 13 13 13 13 16 16 15 15 15 16
21 19 19 19 20 20 20 18 20 18 14 15 16 16 17 18 20 22 23 21 21 20 18 18 17 16 16 16 16 15 15 14 12 13 12 11 11 13 15 12 12 13 12 13 14 15 15 15 16
20 20 19 19 20 22 18 17 19 14 13 13 14 15 15 15 18 21 21 21 21 20 18 17 17 16 16 15 15 15 14 12 11 9 9 10 10 10 11 11 11 12 12 12 13 14 14 15 15
21 22 20 21 20 20 19 19 17 14 14 13 14 14 14 14 15 17 21 21 20 18 17 17 16 14 15 15 14 13 13 12 11 9 9 10 10 11 10 11 10 10 12 13 13 13 13 14 14
19 19 17 17 19 18 19 16 17 14 16 15 15 14 13 13 13 14 16 18 18 17 16 15 14 13 14 14 13 13 13 12 12 10 9 10 10 10 10 8 10 10 12 12 12 12 13 14 12
20 19 17 15 16 17 19 21 17 16 18 16 15 13 12 12 12 12 13 15 15 14 14 14 14 14 13 13 14 13 13 12 12 11 11 11 10 10 10 10 9 11 11 12 12 11 11 11 11
20 18 19 19 17 18 21 20 17 16 17 17 17 14 12 11 11 11 11 12 12 13 14 14 14 13 13 12 13 13 12 12 12 12 11 11 10 10 10 9 10 10 11 11 12 12 10 10 9
20 20 19 19 19 19 20 21 19 18 16 16 17 15 12 11 11 11 10 9 9 10 11 12 12 11 12 13 13 13 12 12 11 11 11 10 10 9 9 9 9 10 11 10 10 9 9 10 9
19 19 19 20 19 19 18 21 19 18 17 17 16 15 13 12 12 13 11 11 10 9 10 9 10 10 10 10 11 10 10 10 10 10 10 10 10 9 9 9 8 8 9 9 10 10 9 9 9

GFSSGP_925_temp_117.txt.gz
Temp
22 24 26 27 27 29 30 32 33 32 32 33 33 33 34 35 33 30 25 27 27 26 24 22 21 21 21 21 21 21 20 20 20 19 19 19 19 19 19 19 19 19 19 19 19 19 19 19 18
24 25 26 28 27 29 31 33 31 32 33 33 33 33 33 33 32 27 26 26 26 26 24 23 21 21 21 21 20 20 20 20 20 19 19 19 19 19 19 19 19 19 19 18 18 18 18 18 18
23 25 27 28 28 28 31 33 32 33 33 33 33 33 33 31 30 29 27 26 27 26 25 23 21 21 21 20 20 20 20 20 19 19 19 19 19 19 19 19 19 19 18 18 18 18 17 17 18
25 27 28 28 28 31 31 33 32 31 33 33 33 32 32 29 29 29 26 27 27 27 26 23 21 21 21 20 20 20 20 19 19 19 19 19 19 19 19 19 19 18 18 18 18 17 17 17 17
26 28 27 28 28 30 32 32 32 31 32 32 33 32 32 28 27 26 26 27 27 26 25 22 21 20 20 20 20 20 19 19 19 19 19 19 19 19 19 19 19 18 18 18 17 17 17 17 17
26 28 27 28 29 31 32 32 32 31 32 32 32 32 30 27 27 26 27 27 27 27 26 23 21 20 20 20 20 19 19 19 19 19 19 19 19 19 19 18 18 18 17 17 17 17 17 17 17
25 27 27 28 29 30 31 32 31 30 31 30 31 30 29 27 26 26 27 27 27 27 26 24 22 20 20 20 20 19 19 20 19 19 19 19 19 19 18 18 18 18 17 17 17 17 17 16 17
26 27 26 28 28 28 30 30 31 30 30 30 30 30 30 28 25 26 27 27 27 26 26 23 22 22 21 20 19 19 20 19 19 19 19 19 18 18 18 18 18 17 17 17 16 16 16 16 17
26 25 26 27 28 28 29 28 30 30 28 30 30 30 28 23 24 26 27 27 27 27 26 23 23 23 22 21 20 19 20 19 19 19 19 19 19 19 19 19 18 17 16 16 16 16 16 16 18
25 25 26 27 27 27 28 28 28 28 28 29 30 30 28 25 24 24 26 26 27 27 27 24 23 23 23 24 21 21 20 20 20 20 19 21 20 20 20 18 17 17 16 16 16 18 18 19 19
26 24 26 26 26 26 26 26 27 27 26 28 29 30 28 27 25 25 25 25 26 25 25 24 23 23 25 24 23 23 22 21 19 20 22 22 21 20 20 18 18 17 17 17 17 18 20 20 20
24 26 25 25 25 25 25 26 26 26 26 28 28 29 29 29 27 26 26 25 24 22 23 23 23 24 25 24 24 24 23 20 19 20 22 21 21 21 20 20 20 19 20 19 19 19 19 20 20
24 25 25 25 25 25 25 24 25 25 27 28 28 28 28 29 28 27 25 25 25 24 23 24 23 25 25 24 24 24 21 19 20 20 21 21 21 21 21 21 20 20 20 20 19 19 20 20 21
25 24 24 25 25 25 24 25 25 26 27 26 27 27 28 28 29 28 26 24 24 23 22 24 24 23 24 24 24 22 20 19 20 20 21 21 21 21 21 20 20 20 20 20 20 20 20 20 20
24 23 25 25 25 24 24 24 25 26 27 26 27 28 28 28 28 28 27 25 24 24 23 23 23 24 24 24 23 20 19 19 19 20 20 21 21 21 20 20 20 20 20 20 20 20 20 20 19
24 25 25 26 25 25 23 23 26 27 26 25 26 27 28 28 27 28 28 27 25 24 23 21 22 24 24 24 22 20 18 19 19 20 20 20 20 20 20 20 20 20 20 20 20 19 19 19 19
26 25 25 25 26 24 24 23 25 26 25 24 25 26 27 28 28 27 27 27 25 23 22 21 22 23 23 23 21 20 18 18 19 20 20 20 19 20 20 20 19 19 19 19 19 19 19 19 19
23 23 24 24 25 24 23 23 24 23 23 23 24 25 26 27 27 28 26 26 25 22 21 21 22 22 22 22 19 19 18 18 19 20 19 19 19 19 19 19 19 18 18 18 18 19 19 19 19
24 24 24 25 24 22 23 22 22 23 22 22 22 23 25 26 27 26 25 25 24 21 19 18 19 20 21 20 18 17 17 18 19 19 20 19 19 19 19 19 18 18 18 18 18 19 19 19 19
24 24 24 24 24 23 23 22 23 23 22 21 22 22 23 24 25 26 25 25 24 22 19 17 18 19 19 19 17 17 17 18 19 19 19 18 18 17 16 17 17 17 18 18 18 18 18 18 18
24 23 22 22 23 23 23 22 22 22 21 19 19 20 21 22 23 25 25 24 24 22 20 19 17 19 19 18 16 16 16 16 16 17 17 16 16 16 16 16 16 16 17 18 17 17 17 17 17
23 23 21 22 22 23 23 22 22 21 19 18 18 17 19 20 22 24 24 24 24 23 21 19 19 19 19 17 15 15 15 14 14 14 14 15 15 15 15 15 15 15 16 16 15 15 16 16 16
23 23 21 22 22 23 23 21 22 20 16 16 16 16 16 16 18 21 24 24 24 24 23 19 18 17 17 16 16 16 15 15 14 14 13 13 13 14 15 16 16 14 14 13 13 13 14 15 16
23 24 22 22 23 22 22 19 21 17 15 14 15 14 14 14 15 18 23 24 23 23 20 17 17 15 16 16 15 15 15 14 13 11 11 10 10 10 13 13 14 13 12 12 12 14 14 14 14
23 23 21 22 22 22 22 20 19 18 16 15 14 13 13 13 13 15 24 23 23 21 18 17 16 16 15 15 14 14 14 14 13 12 10 10 10 9 9 9 11 11 11 11 12 13 13 13 14
22 21 19 16 20 20 22 19 19 19 18 17 14 13 12 12 12 13 17 19 19 18 15 15 15 14 15 15 13 14 15 13 11 10 10 9 10 10 10 9 9 10 11 10 11 12 13 12 13
22 22 20 17 19 19 22 22 21 21 21 19 16 13 12 12 12 12 12 15 15 14 14 14 14 13 13 13 13 12 12 12 11 11 10 10 10 10 10 9 9 10 10 10 11 12 11 11 12
22 21 21 21 18 20 24 22 21 21 19 19 16 13 12 12 11 11 11 11 11 13 14 14 13 13 13 13 13 12 12 12 12 11 11 10 10 10 9 9 9 10 10 11 11 11 11 11 11
22 23 23 21 21 20 22 22 22 21 19 19 17 13 12 11 11 10 10 10 10 11 13 12 11 12 12 12 12 12 12 11 11 11 10 10 9 9 9 9 9 9 9 9 10 10 10 10 10
21 22 22 21 21 22 21 22 22 21 20 19 16 15 14 13 12 11 11 10 9 8 9 11 10 10 10 10 10 10 10 10 10 9 9 10 9 9 9 8 9 9 9 9 9 10 10 11 11

GFSSGP_925_temp_120.txt.gz
Temp
23 24 25 26 24 25 26 28 31 32 32 32 33 33 32 32 29 25 26 27 25 23 21 21 21 21 21 21 21 21 20 20 20 19 20 19 19 19 19 19 19 19 19 19 19 19 19 18 19
22 25 26 24 24 25 27 30 30 32 33 32 33 32 32 30 29 26 26 27 25 23 22 21 21 21 21 21 21 20 20 20 19 19 19 19 19 19 19 19 19 19 18 18 18 18 18 18 19
22 25 25 24 25 25 26 30 30 33 33 33 32 33 32 29 29 27 27 27 26 24 22 21 21 21 21 21 20 20 20 20 19 19 19 19 19 19 19 19 19 18 18 18 18 17 18 18 18
25 26 25 24 25 28 29 30 32 32 32 33 32 31 30 29 30 28 27 27 26 25 24 23 21 21 21 20 20 20 20 19 19 19 19 19 19 19 19 19 18 18 18 17 17 17 17 19 18
25 25 24 25 26 28 29 30 29 30 31 32 32 31 28 28 28 27 27 27 27 25 24 23 21 20 20 20 20 20 20 19 19 19 19 19 19 19 19 19 18 18 18 17 17 17 17 19 19
23 25 24 25 26 29 30 31 31 25 24 31 30 30 27 27 27 27 27 27 27 24 22 21 22 21 20 20 20 20 19 19 19 19 19 19 19 19 19 19 18 18 17 17 17 17 17 19 19
23 23 24 25 26 27 29 31 30 26 20 27 29 27 24 26 27 27 28 27 27 25 23 21 21 20 20 20 20 19 19 19 19 19 19 19 19 19 19 18 18 17 17 17 17 17 17 18 19
24 23 24 24 25 26 29 30 30 29 28 29 31 22 21 20 24 27 28 28 28 25 23 22 21 20 20 20 20 19 19 19 19 19 19 19 19 19 19 18 17 17 17 17 16 16 17 19 19
26 22 23 25 26 26 28 28 30 30 29 27 27 27 21 21 21 25 28 27 27 27 24 23 22 21 20 19 19 19 19 19 19 19 19 19 19 19 18 18 17 17 16 16 16 17 19 19 20
23 22 24 26 26 25 26 26 27 27 27 27 28 28 22 23 22 23 22 25 27 27 25 23 22 22 21 20 20 19 19 19 19 19 19 19 19 19 18 18 17 16 16 16 17 18 19 20 20
25 23 25 25 26 25 25 25 26 25 24 26 26 27 26 23 23 23 25 25 25 26 24 22 22 22 22 21 20 20 20 19 20 19 19 20 20 19 18 17 17 17 17 18 18 18 19 20 20
23 25 26 25 25 25 24 25 24 24 24 26 26 26 26 27 25 25 25 25 25 22 24 23 23 23 23 22 21 22 21 20 20 20 20 21 20 19 19 18 18 18 18 19 19 19 20 20 20
24 25 25 25 25 24 25 24 24 24 25 26 26 26 25 25 26 27 25 25 25 22 20 23 23 23 22 23 23 23 22 21 20 21 21 21 21 20 20 19 19 19 19 19 19 19 20 20 21
25 24 24 25 25 25 24 24 24 25 26 27 26 25 25 25 26 28 26 26 24 23 22 23 22 22 23 24 24 22 21 21 20 20 21 21 21 21 21 20 20 20 20 19 19 20 20 20 20
25 23 24 25 26 24 24 23 24 25 26 26 25 25 25 25 27 27 28 26 25 24 22 22 22 23 23 24 24 22 21 20 20 20 21 21 21 21 21 20 20 20 20 20 20 20 20 20 19
24 24 24 26 25 24 24 21 24 25 25 24 24 24 24 25 26 27 27 28 25 24 22 22 22 21 23 24 23 21 20 19 19 20 21 21 21 21 20 20 19 20 20 20 20 20 19 19 19
25 23 23 25 26 24 23 22 24 23 23 22 22 22 23 24 25 27 27 27 27 25 22 22 19 20 23 24 21 21 20 19 19 19 20 20 20 20 20 20 20 20 20 20 19 19 19 19 19
22 22 24 24 24 23 22 22 22 22 22 21 21 21 22 23 24 27 27 27 27 25 24 22 22 23 23 22 21 20 19 19 19 19 20 20 20 20 20 20 19 19 19 19 19 19 19 19 19
23 23 24 24 24 22 23 22 22 21 19 19 19 18 19 21 23 25 26 26 25 24 23 22 21 20 21 21 19 19 18 18 19 19 19 19 19 19 19 19 19 19 18 18 19 19 19 19 19
24 24 23 23 24 23 23 22 21 21 19 18 18 18 18 19 20 23 25 25 25 23 22 19 19 20 16 18 19 18 18 18 19 19 19 19 19 19 19 19 18 18 18 18 18 18 18 18 18
23 22 21 21 22 23 23 21 21 21 19 18 18 17 17 17 18 19 22 24 24 23 20 17 18 18 17 17 18 18 18 18 19 19 19 19 19 18 18 18 18 18 18 18 18 18 18 17 17
21 22 22 22 22 21 23 19 19 19 18 16 16 16 16 15 15 17 18 22 24 23 21 18 17 18 17 16 17 17 17 16 17 17 17 17 17 17 17 17 17 17 17 17 17 17 16 16 16
22 22 22 22 21 22 21 19 20 18 16 15 15 15 14 15 15 15 16 17 24 23 21 18 17 16 15 15 16 16 16 16 16 15 15 16 15 15 15 15 16 17 17 16 16 15 15 14 15
23 23 23 22 21 19 21 19 18 16 15 15 15 14 13 13 14 14 15 16 23 21 20 17 16 15 15 15 14 14 15 15 15 14 13 13 12 12 13 13 14 15 15 14 14 14 13 14 15
22 21 17 18 18 19 21 19 17 18 16 15 14 12 12 12 13 13 16 20 19 19 18 16 16 14 16 17 15 15 14 15 15 14 13 11 10 8 8 9 10 11 12 11 10 11 12 13 14
21 21 16 15 16 16 20 18 18 20 17 16 14 12 12 12 12 12 13 15 16 15 15 14 14 14 14 14 14 14 13 12 11 11 11 10 10 9 9 9 9 10 10 9 10 11 12 13 13
21 19 20 17 18 17 18 19 19 19 19 17 14 13 12 11 11 11 11 12 14 14 14 13 13 13 12 12 12 12 12 12 11 11 10 10 10 10 10 9 9 9 9 9 10 11 11 12 12
22 22 19 18 14 18 21 20 18 18 18 17 14 12 12 11 11 11 10 11 12 12 13 13 12 12 12 12 12 12 12 11 11 11 10 10 10 10 9 9 8 9 9 10 10 11 11 11 11
21 21 22 20 20 18 18 18 20 18 18 16 15 12 11 11 11 10 10 9 10 10 11 11 11 12 12 12 11 11 11 11 11 11 10 10 10 9 9 9 9 10 10 10 10 10 10 10 10
22 21 21 19 19 19 19 18 20 18 18 16 15 12 12 11 11 11 10 9 10 10 10 10 10 11 10 11 11 10 10 10 9 9 9 9 9 9 8 8 9 9 9 9 9 9 9 10 10

GFSSGP_925_temp_123.txt.gz
Temp
24 24 22 22 20 20 21 24 26 27 31 30 31 31 28 27 27 26 25 24 24 22 21 22 21 21 21 21 20 20 20 20 20 19 19 19 19 19 19 19 19 19 19 19 19 19 19 19 19
23 24 24 21 20 21 21 25 26 28 31 30 31 31 30 26 25 24 24 24 24 22 21 21 21 21 21 21 21 20 20 19 19 20 19 19 19 19 19 19 18 18 18 18 18 18 18 19 19
23 23 21 20 20 21 22 25 26 29 31 31 30 31 28 26 25 25 25 24 23 21 21 21 21 21 21 21 21 20 20 19 19 19 19 19 19 19 19 19 18 18 18 18 18 18 18 18 19
22 22 21 21 21 22 24 25 28 29 31 31 30 28 27 27 25 26 25 23 22 22 21 21 21 21 21 21 20 20 20 19 19 19 19 19 19 19 19 18 18 18 17 17 17 17 18 18 19
22 19 20 20 21 23 25 26 26 28 28 25 25 27 25 26 27 26 26 23 23 22 21 21 21 21 21 20 20 20 20 19 19 19 19 19 19 19 18 18 18 17 17 17 17 18 18 18 19
19 19 19 19 21 24 25 26 26 25 22 25 22 21 23 22 22 23 26 24 23 22 22 22 21 21 21 20 20 20 19 19 19 19 19 19 19 19 18 18 18 17 17 17 17 19 19 19 19
21 19 19 20 21 23 25 26 28 25 24 23 21 21 20 20 21 24 22 25 24 22 21 21 21 21 20 20 20 20 19 19 19 19 19 19 19 19 18 18 17 17 17 17 17 19 19 19 18
20 19 21 21 21 22 24 25 26 25 23 25 23 22 22 19 24 23 20 23 24 23 22 21 20 20 20 20 20 19 19 18 18 19 19 19 19 19 18 17 17 17 17 17 18 19 19 19 19
22 18 18 21 22 22 23 23 24 25 25 26 25 23 22 23 23 21 17 19 23 23 21 22 20 20 20 19 19 19 19 19 19 19 19 19 19 18 18 17 17 17 17 17 19 19 19 19 18
20 18 20 23 22 22 23 22 22 23 22 23 23 20 19 19 20 18 18 16 17 20 22 21 21 20 20 19 19 19 19 19 18 19 19 19 18 18 17 17 17 16 17 19 19 19 19 19 18
22 19 22 22 24 23 22 22 22 21 21 22 22 22 19 19 20 20 19 19 16 22 20 21 22 21 21 20 19 19 19 19 18 19 19 18 18 18 18 17 18 18 18 19 19 20 20 19 18
22 22 22 23 24 23 22 23 22 22 21 21 22 23 22 21 21 21 20 19 23 20 21 22 21 21 21 20 19 19 19 19 19 19 19 19 18 18 18 18 18 19 19 19 19 20 20 19 18
22 22 23 23 22 23 23 22 21 21 22 22 23 23 22 23 22 24 23 21 21 20 21 20 21 20 20 21 20 20 20 20 19 19 19 19 19 19 18 18 18 19 19 19 19 19 20 20 18
23 22 22 22 22 23 23 22 22 22 22 23 25 24 22 22 23 25 24 21 22 21 22 20 19 18 21 21 20 20 21 21 20 20 19 20 20 20 19 18 18 19 19 19 19 19 20 19 18
23 21 21 22 23 23 22 21 21 21 21 20 20 19 20 21 23 24 25 22 24 24 20 19 20 20 19 20 21 21 21 21 21 20 20 21 20 20 19 18 19 19 19 19 19 19 20 19 18
22 21 20 23 23 22 22 20 21 20 20 19 19 18 19 20 21 24 27 26 24 23 21 22 19 21 21 20 21 22 21 21 21 20 20 21 21 20 20 19 19 19 19 19 19 19 19 19 19
19 19 20 21 22 23 21 20 20 20 19 18 17 17 18 18 20 20 22 26 25 23 22 22 22 22 20 20 21 21 21 21 20 20 21 21 21 20 20 20 19 20 19 19 19 19 19 19 19
19 19 20 20 22 22 21 20 18 18 17 16 15 15 16 17 18 19 20 23 25 24 23 23 22 20 18 20 22 21 20 20 20 20 20 21 20 20 20 20 19 19 19 19 19 19 19 19 18
20 20 19 20 22 22 21 18 18 17 17 16 15 14 15 16 17 17 18 20 23 22 20 22 20 18 19 19 20 20 19 20 19 19 18 20 20 20 20 20 19 19 19 19 19 19 19 18 18
21 19 19 19 21 21 20 19 18 17 16 16 16 14 14 15 15 15 16 17 18 22 23 22 20 21 18 18 17 18 20 20 19 19 19 20 20 19 20 19 19 19 19 19 18 19 18 18 18
20 20 19 19 20 21 21 18 18 17 17 16 15 14 14 14 14 14 15 16 17 21 22 22 20 20 19 17 16 16 20 19 18 18 17 18 19 19 19 19 19 19 18 18 18 18 18 16 16
19 21 21 20 18 18 21 16 17 18 17 15 14 13 15 13 13 14 14 15 16 17 21 21 17 17 17 15 15 16 17 16 17 18 18 18 18 18 18 18 18 18 18 18 17 17 18 18 16
19 20 20 20 19 18 18 15 16 16 15 15 13 14 13 13 13 13 13 14 15 16 20 18 17 16 14 17 17 15 15 15 16 17 16 16 17 17 17 17 17 17 17 17 17 17 17 16 16
21 20 19 19 17 16 18 17 15 15 15 13 14 13 12 12 13 13 14 15 16 17 17 16 16 16 15 15 16 14 13 13 15 14 15 15 15 15 15 15 16 16 15 15 16 15 14 14 14
18 16 12 15 14 15 19 16 15 16 15 13 13 12 12 12 12 12 14 16 15 14 15 15 16 14 15 15 17 15 15 15 14 13 11 10 11 10 11 14 13 13 13 13 13 13 13 13 14
19 17 12 12 12 13 16 15 16 17 14 13 14 12 12 11 11 12 13 14 14 15 14 14 13 13 13 14 13 13 13 13 13 13 12 11 11 10 10 11 11 11 11 12 11 11 12 12 12
20 17 18 14 16 13 15 18 18 17 15 14 12 12 11 11 11 11 11 12 14 13 13 14 13 13 12 12 12 13 13 13 12 12 11 11 10 10 9 10 10 10 10 10 10 10 11 10 11
20 18 17 13 13 15 17 17 16 15 15 14 11 11 11 11 11 10 10 11 11 11 11 12 12 11 12 12 12 11 11 10 10 10 10 10 10 10 9 9 9 9 9 9 9 9 10 11 11
18 18 19 16 15 15 15 15 16 16 14 14 11 12 11 11 10 10 10 9 10 10 10 10 11 11 11 11 11 11 11 11 11 10 10 10 10 10 9 9 8 8 8 9 9 10 10 11 11
20 20 18 14 17 15 15 15 16 15 13 14 12 12 11 11 10 9 9 10 9 9 9 9 9 10 10 10 10 10 10 10 10 10 9 9 9 9 9 8 9 9 9 9 9 9 9 10 10

GFSSGP_925_temp_129.txt.gz
Temp
22 22 22 21 20 18 20 21 23 24 25 26 25 26 28 26 28 25 21 21 22 21 21 21 21 21 21 21 20 20 20 20 19 19 20 19 19 19 19 19 19 19 19 20 19 19 19 19 19
23 22 22 18 18 19 19 21 23 24 25 24 25 26 26 24 23 19 20 20 22 22 21 21 21 21 21 21 21 20 20 20 19 19 19 19 19 19 19 19 19 19 19 19 19 19 19 19 19
22 22 19 19 18 18 19 22 22 24 24 25 26 24 24 22 22 21 23 21 21 21 21 21 21 21 21 21 21 20 20 19 19 19 19 19 19 19 19 19 18 18 18 18 19 19 19 18 18
22 20 18 19 19 20 21 20 22 23 25 24 23 25 21 19 19 22 22 22 20 21 21 21 21 21 21 21 20 20 20 19 19 19 19 19 19 19 18 18 18 18 18 18 18 18 18 18 18
21 16 17 18 19 20 21 22 21 22 23 23 22 24 21 20 19 20 20 20 20 20 21 21 21 21 21 20 20 20 20 19 19 19 19 19 19 19 18 18 18 18 18 18 18 18 18 18 18
17 16 16 17 18 20 20 22 21 21 22 22 22 22 20 19 19 20 20 20 20 21 21 21 21 21 20 20 20 20 19 19 19 19 19 19 19 18 18 18 18 18 18 18 18 18 18 17 17
17 16 17 18 19 20 22 21 22 21 22 22 21 22 21 20 19 20 21 21 21 21 21 21 21 21 21 20 20 20 19 19 19 19 19 19 19 18 18 17 18 17 18 18 18 18 17 17 17
16 16 19 19 19 20 22 22 23 22 22 22 22 21 22 20 19 20 21 21 20 20 21 21 20 21 20 20 20 19 19 19 19 19 19 19 19 18 18 17 17 17 17 18 17 17 17 17 17
18 16 16 19 21 20 21 21 22 22 21 22 21 21 20 19 20 20 19 20 19 20 21 19 18 17 18 20 20 20 19 19 19 19 19 19 18 18 17 17 17 17 17 17 17 17 16 16 16
17 15 18 19 21 20 21 21 21 21 20 22 21 21 20 19 19 19 19 19 19 19 20 20 18 19 18 18 20 20 19 18 19 19 18 18 18 18 18 17 17 17 17 17 17 16 17 17 17
18 18 19 21 20 20 21 21 22 21 20 20 20 21 20 19 18 17 19 20 20 19 17 19 20 20 16 16 20 20 19 19 19 18 18 18 18 17 17 17 17 17 17 17 16 17 17 17 16
21 20 21 21 22 22 21 21 21 21 20 18 19 19 19 18 17 17 18 19 20 18 20 20 17 16 17 15 20 20 19 19 18 18 18 18 18 18 18 18 17 17 17 16 17 17 17 17 16
20 21 22 21 20 20 21 21 20 20 19 18 18 17 16 16 17 19 18 19 19 20 20 19 17 17 16 17 18 21 19 19 19 19 18 18 18 18 18 18 18 17 17 17 17 17 17 17 16
21 21 20 20 20 21 22 21 21 20 18 17 17 16 16 16 16 16 17 18 17 18 17 19 18 17 17 16 17 19 19 19 18 18 18 18 18 18 18 18 18 18 18 17 18 17 17 16 16
21 20 19 21 21 21 21 21 20 17 17 16 15 14 15 15 16 15 16 17 17 17 17 17 17 17 17 16 16 16 16 18 18 17 18 18 18 18 18 18 18 18 18 18 18 17 17 16 16
19 18 18 20 20 21 21 18 18 16 16 16 15 13 14 14 15 16 16 16 17 16 16 17 17 18 17 18 18 16 16 18 18 18 17 18 18 18 18 19 18 18 18 18 18 17 16 16 16
16 18 19 18 21 21 20 19 18 16 16 16 14 13 14 15 15 15 15 16 17 16 17 16 17 17 17 18 17 16 16 16 17 18 18 18 18 18 18 19 18 18 18 18 18 16 17 16 15
18 18 18 17 20 20 19 17 17 17 16 15 14 13 13 14 14 14 14 15 16 16 16 16 17 16 16 17 16 16 16 16 18 18 17 17 18 18 19 19 19 19 18 18 18 17 16 16 15
19 18 18 18 19 20 18 17 16 16 16 14 13 12 13 12 13 13 13 14 15 15 16 17 18 17 16 17 17 16 16 16 17 18 17 17 18 18 18 19 19 19 18 18 18 17 16 15 15
19 19 18 18 18 19 17 17 17 16 16 15 13 13 13 12 12 12 12 13 14 15 16 17 18 19 19 19 17 16 16 16 17 16 16 17 18 18 18 18 19 19 18 18 18 17 15 15 15
19 18 18 18 18 19 18 16 16 17 16 15 13 13 14 14 13 13 12 12 13 14 15 17 19 19 18 18 16 15 15 15 15 13 14 15 17 17 17 18 19 19 19 18 17 17 17 15 15
19 18 19 19 18 16 18 15 16 15 14 13 12 13 14 13 13 13 13 12 13 14 15 15 17 18 17 16 15 16 15 13 13 12 13 14 16 17 17 16 19 19 19 19 18 18 18 17 16
19 19 18 18 17 17 17 14 15 14 14 13 13 14 13 13 12 13 13 13 14 14 14 14 15 15 16 16 16 16 14 15 14 14 14 14 13 13 13 14 18 18 18 18 18 17 18 18 16
19 19 16 14 14 15 17 16 14 14 13 12 14 14 13 12 12 13 14 14 14 13 14 14 15 14 15 15 15 16 16 13 11 10 10 11 13 15 14 15 16 17 18 17 17 17 17 16 15
17 15 11 15 12 14 15 14 14 15 13 12 13 13 12 12 12 12 14 14 14 13 13 13 14 13 13 14 13 13 13 11 11 12 13 12 12 12 12 13 14 15 16 16 16 16 15 15 15
18 15 10 13 12 11 14 13 15 14 13 13 13 13 12 11 11 11 12 13 14 13 13 13 13 13 13 13 13 12 12 11 10 10 11 12 13 12 11 12 13 13 13 14 14 13 13 13 13
17 16 15 12 12 11 13 15 16 12 13 12 13 13 12 11 11 10 11 11 12 12 12 12 12 12 12 12 12 12 12 12 12 11 11 12 12 11 10 11 11 12 13 12 12 12 12 13 13
18 15 15 11 13 15 13 15 14 14 13 12 13 12 12 11 11 10 10 10 10 11 11 11 11 11 11 12 12 12 12 12 12 11 11 11 10 9 9 9 10 10 11 11 12 12 12 12 12
16 16 14 14 13 14 14 14 13 15 13 12 12 12 11 11 10 10 9 9 9 10 10 10 10 11 10 11 11 11 11 11 10 10 10 10 10 9 9 9 9 10 10 10 10 10 10 11 11
17 16 15 13 15 13 12 14 15 13 12 12 12 12 11 10 10 10 9 9 9 9 10 10 10 10 10 10 10 10 10 10 10 10 10 10 9 9 9 9 9 9 9 9 9 9 9 10 10

GFSSGP_925_temp_132.txt.gz
Temp
23 22 22 21 19 18 19 21 21 22 23 25 23 24 25 23 25 24 19 19 21 22 21 21 21 21 20 20 20 20 20 19 20 20 19 19 19 19 19 19 19 19 19 19 19 19 19 19 19
23 22 22 17 18 18 18 20 22 22 23 22 23 25 24 23 22 19 19 20 21 22 21 21 21 21 21 21 20 20 19 19 19 20 19 19 19 19 19 19 19 19 19 19 19 19 19 19 19
21 22 19 18 16 17 19 21 20 22 22 23 24 23 22 22 21 20 22 21 21 22 21 21 21 21 21 20 20 20 19 19 19 19 19 19 19 19 19 19 19 19 19 19 19 19 19 19 19
21 20 17 18 18 19 20 20 20 21 23 23 22 24 21 19 18 19 20 21 21 21 21 21 21 21 21 20 20 20 19 19 19 19 19 19 19 19 19 19 19 18 18 18 18 18 18 18 18
20 16 16 17 18 19 20 21 20 21 21 22 21 21 21 19 19 19 20 21 21 21 21 21 21 21 21 20 20 20 19 19 19 19 20 19 19 19 18 18 18 18 19 18 18 18 18 18 18
16 15 16 17 17 19 19 21 20 21 21 21 21 20 20 19 20 19 19 20 21 22 22 22 21 21 20 20 20 20 19 19 19 19 19 19 19 18 18 18 18 18 18 18 18 18 18 18 18
17 15 16 17 18 19 22 20 22 21 21 22 21 21 20 20 20 19 19 20 20 21 21 21 21 21 21 20 20 20 19 19 19 19 19 19 19 18 18 18 18 18 18 18 18 18 17 17 17
15 16 17 18 18 20 21 21 22 22 22 21 21 21 21 20 20 19 19 20 20 20 20 20 20 20 20 19 20 20 20 19 19 19 19 19 19 18 17 17 17 18 18 18 17 17 17 17 17
17 15 16 19 19 20 21 21 22 21 21 20 21 21 21 19 19 19 18 19 19 20 20 20 19 18 19 18 18 19 20 19 19 19 19 18 18 18 17 17 17 18 17 17 17 17 16 17 17
16 15 17 18 20 20 21 21 21 21 19 21 21 20 20 18 18 18 18 18 18 18 20 20 20 19 18 18 19 18 18 19 19 19 18 18 18 18 17 17 17 17 17 17 17 16 16 17 17
17 17 19 20 19 20 21 21 21 20 20 19 18 18 18 18 17 17 17 18 18 19 19 21 21 21 22 21 20 21 18 19 19 19 18 18 18 18 17 17 17 17 17 16 16 17 17 16 16
20 19 19 21 21 21 21 21 21 20 19 16 16 17 16 15 15 16 16 17 17 18 19 19 20 21 21 18 18 18 16 19 19 18 18 18 17 18 17 17 17 17 17 16 17 17 16 16 16
19 20 20 20 19 19 20 20 20 19 18 16 16 15 15 15 16 17 17 17 17 17 18 19 20 20 20 19 16 16 18 18 18 18 18 18 18 18 17 17 16 16 17 17 17 17 16 16 15
20 20 19 19 20 20 20 20 20 19 17 16 15 14 15 15 15 15 16 16 17 16 17 18 20 19 17 16 16 16 16 17 18 18 18 18 18 18 17 17 16 16 17 17 17 17 16 15 15
20 19 19 21 20 21 19 20 19 17 17 16 14 13 14 14 15 14 15 15 16 16 15 18 19 19 18 17 18 17 16 16 18 18 18 18 18 18 18 17 16 16 17 17 16 16 16 15 15
18 17 18 20 20 20 20 18 17 16 17 16 13 12 13 13 14 14 14 15 15 16 15 17 19 19 19 16 16 17 17 16 17 18 18 18 18 18 18 17 16 16 17 17 16 16 16 15 15
16 17 18 18 19 20 20 18 17 16 16 15 13 12 12 13 13 14 14 14 15 15 15 15 18 19 18 15 15 16 15 16 16 18 18 17 18 18 18 18 17 17 17 17 17 16 16 15 14
17 18 17 16 19 20 19 16 17 16 16 14 12 11 11 12 12 13 13 14 15 14 15 15 16 18 18 15 14 14 15 15 16 18 17 17 17 18 18 18 17 17 17 17 16 16 16 15 14
18 18 17 16 18 19 18 16 16 16 16 14 12 11 12 12 13 13 13 13 14 15 15 16 16 18 17 16 15 15 16 15 16 17 16 16 16 17 17 18 18 17 18 17 17 16 15 14 14
18 18 17 17 18 18 17 16 16 16 16 14 13 12 12 13 13 13 13 12 13 14 15 16 16 17 17 17 16 16 15 15 15 16 16 15 15 16 17 18 18 18 18 17 16 16 14 13 14
18 17 17 18 18 18 16 15 16 16 16 14 12 11 15 14 13 13 13 12 13 14 14 16 16 16 16 15 15 16 15 16 15 15 15 14 15 16 17 17 18 18 18 17 16 16 16 14 14
18 18 18 19 17 16 16 15 15 16 13 13 11 15 13 13 13 13 13 12 13 13 14 14 15 16 15 16 15 15 15 14 13 14 14 13 13 14 16 16 17 17 18 18 17 17 17 16 14
18 18 18 17 16 16 16 14 14 14 14 12 12 14 13 13 12 13 13 13 13 13 13 14 14 14 15 15 15 15 14 14 14 14 14 13 13 13 15 15 16 17 17 18 18 17 16 16 16
18 18 15 14 14 14 16 15 14 14 14 12 12 14 13 12 12 14 14 14 13 13 13 13 13 14 15 15 15 14 14 13 13 13 12 13 13 13 13 14 16 17 15 17 17 17 16 16 16
17 15 12 14 12 14 14 13 14 15 13 12 13 13 12 12 12 12 14 14 13 13 13 13 13 12 13 13 14 13 13 12 11 11 12 12 13 13 13 15 15 16 15 16 16 16 16 16 16
17 15 11 13 11 11 13 13 16 15 12 12 12 13 12 12 11 11 12 13 13 13 13 13 12 12 12 12 12 12 12 12 11 12 12 11 11 12 12 12 13 14 14 15 15 15 14 14 14
16 15 14 11 11 10 12 14 15 13 13 13 12 13 12 11 11 11 11 11 12 12 12 12 12 12 12 12 12 11 11 11 11 11 11 11 11 11 11 11 12 13 13 13 13 13 13 13 13
17 14 15 11 13 15 13 14 14 15 15 13 12 13 12 11 11 10 10 10 10 11 11 12 12 11 11 11 12 11 11 11 11 11 10 10 10 9 9 10 11 11 11 12 12 12 12 12 12
15 15 13 13 12 15 14 15 13 15 14 13 12 11 12 11 10 10 9 9 9 10 10 10 11 11 11 11 12 12 11 11 10 10 10 10 10 9 9 9 10 10 11 11 12 12 11 12 12
15 15 14 13 15 12 12 14 14 14 13 12 12 11 11 10 10 10 9 9 9 9 9 9 9 10 10 10 10 10 10 11 10 10 10 9 9 8 8 9 9 9 10 10 10 10 10 10 10

GFSSGP_925_temp_138.txt.gz
Temp
22 22 23 26 27 28 28 27 27 28 29 30 29 29 29 30 30 29 23 22 22 24 23 21 21 21 21 20 20 20 20 20 20 20 19 19 19 19 19 20 20 20 20 20 20 20 19 20 20
22 23 25 27 27 29 29 27 27 27 28 29 29 30 29 30 28 27 26 23 22 24 23 22 21 21 21 21 20 20 20 20 20 20 19 19 19 19 19 19 19 19 19 19 19 19 19 19 19
22 23 27 27 27 28 28 27 26 27 28 28 29 29 29 27 27 26 24 22 23 24 24 22 21 21 21 20 20 20 20 20 20 20 19 19 19 19 19 19 19 19 19 19 19 19 19 19 18
24 26 26 27 27 26 27 27 26 27 28 28 28 29 28 24 24 23 23 22 24 24 24 21 21 21 21 20 20 20 20 20 20 20 19 19 19 19 19 19 19 19 19 19 19 19 19 18 18
24 26 26 26 26 26 26 26 26 27 27 28 28 28 27 25 23 22 23 23 24 25 24 22 21 21 21 20 20 20 20 20 20 20 20 19 19 19 19 19 19 19 19 19 19 18 19 19 18
25 25 26 27 26 25 26 26 26 26 27 28 28 28 27 24 23 22 21 23 24 24 24 22 21 21 21 20 20 20 20 20 20 20 20 19 19 19 19 19 19 18 18 18 18 18 18 18 18
25 25 26 25 25 25 26 26 27 26 26 27 26 27 27 25 22 22 21 21 23 24 24 22 21 20 20 21 20 20 20 20 20 19 20 19 19 19 19 19 19 19 18 18 18 18 19 18 17
24 25 24 25 25 26 26 26 26 26 26 26 26 27 27 24 22 21 21 20 21 23 23 20 21 20 20 20 20 20 20 20 20 19 19 19 19 18 19 19 19 19 18 18 18 18 18 17 18
23 25 26 25 24 25 25 25 26 26 26 26 26 26 25 23 21 21 22 20 19 20 21 20 20 20 21 20 20 19 19 19 19 19 19 19 19 19 19 20 19 18 18 18 18 17 17 18 18
24 25 25 25 25 25 25 25 26 25 26 26 25 25 23 23 24 24 23 22 19 19 19 20 20 20 19 20 20 18 19 18 18 19 19 20 20 20 21 19 18 18 18 17 17 17 17 19 18
23 25 24 25 25 25 25 25 25 25 25 24 24 24 23 22 23 23 23 22 22 21 19 19 19 19 19 18 18 17 21 19 16 18 18 19 19 19 20 19 18 18 18 18 18 17 19 19 19
24 24 24 24 24 24 24 25 25 25 25 23 22 22 22 23 23 22 22 22 21 21 20 19 18 18 19 19 18 17 18 19 18 17 17 18 18 18 20 20 20 20 20 19 18 18 18 18 19
24 24 24 24 24 24 24 24 25 24 23 22 21 21 22 22 22 22 21 20 20 21 20 19 19 18 18 17 19 18 16 16 18 19 18 17 17 17 19 20 19 19 19 19 18 18 18 19 19
24 24 24 24 24 24 23 24 23 25 23 22 21 22 22 22 22 22 22 22 21 21 19 18 18 19 18 17 17 18 18 17 16 17 19 18 18 17 18 18 19 18 18 17 17 18 18 18 18
23 23 25 25 25 24 23 23 23 24 22 22 22 22 21 21 20 21 20 20 20 20 19 18 17 18 18 18 18 17 17 17 16 16 17 17 17 17 17 18 17 18 18 18 18 18 18 18 18
23 23 24 25 24 24 23 24 25 23 23 23 23 23 21 22 21 20 19 19 19 19 19 18 18 18 17 18 17 16 16 17 16 16 16 17 17 17 17 18 18 18 18 18 17 17 17 17 17
23 25 24 24 24 24 23 24 24 23 22 23 23 22 22 22 21 20 19 18 18 18 18 18 17 18 18 16 17 17 16 17 17 16 16 16 16 16 16 17 17 17 17 17 17 17 17 17 17
25 24 24 24 24 23 23 24 25 23 22 22 22 22 22 21 21 19 18 17 16 16 16 16 17 18 17 16 17 16 15 16 16 15 16 16 17 16 15 16 16 16 17 16 17 16 17 17 17
24 24 24 24 24 22 23 24 24 24 22 21 21 21 21 21 20 19 18 17 16 15 16 16 17 17 17 15 17 17 17 16 15 15 16 16 16 15 15 15 16 16 17 17 17 16 17 16 17
23 23 24 24 22 22 24 23 24 22 21 20 20 20 19 19 18 17 17 17 17 16 16 17 17 17 16 16 17 16 16 15 15 15 14 15 16 15 14 15 16 16 16 16 16 16 16 16 16
23 23 24 23 22 22 21 23 22 20 20 19 20 19 19 17 16 16 17 17 17 16 16 15 15 16 15 16 16 15 14 14 15 15 15 14 14 15 14 15 16 15 16 16 16 16 16 16 17
23 23 22 22 21 23 22 24 23 22 21 20 20 19 18 15 15 15 14 14 14 14 15 15 15 15 16 16 17 15 14 13 13 14 14 14 14 15 15 15 16 16 16 16 16 16 16 16 16
23 21 21 21 22 21 22 22 25 21 21 21 19 18 17 15 15 15 15 14 13 13 14 15 15 15 16 16 16 15 14 14 13 14 14 14 14 14 14 15 15 15 16 17 16 16 17 17 17
20 21 20 20 21 22 23 22 25 23 22 20 19 18 16 15 15 15 15 14 13 13 13 13 14 14 14 15 15 15 14 14 13 13 14 13 13 13 13 14 15 15 15 16 16 16 17 17 18
21 22 21 21 20 23 20 20 24 22 19 19 18 18 16 15 14 14 15 15 15 13 13 13 13 13 14 15 14 14 14 13 13 12 13 13 13 13 13 12 14 13 15 15 15 16 16 17 17
21 23 21 20 22 22 18 20 23 21 19 18 17 17 16 14 13 13 13 14 14 13 13 13 13 13 13 13 12 12 12 12 12 12 12 12 12 12 13 13 12 13 15 15 14 14 15 16 16
20 20 22 19 17 20 21 22 19 18 18 17 17 17 16 14 13 12 12 12 13 13 13 12 12 12 12 11 12 12 11 12 12 12 11 11 11 11 11 11 11 12 13 14 13 14 14 14 15
22 21 20 21 19 22 24 23 25 18 19 18 17 18 17 16 13 12 11 11 11 11 11 11 11 11 11 11 11 11 11 11 11 11 11 11 11 11 10 10 11 10 12 12 13 13 13 13 12
19 21 21 22 21 24 25 26 24 23 21 20 19 18 17 16 14 12 11 10 10 10 10 10 10 10 11 11 11 11 11 10 10 10 10 10 10 10 11 11 11 10 10 11 11 12 12 12 12
23 23 23 23 22 22 22 25 22 23 21 20 19 17 17 16 13 12 10 10 9 9 9 10 10 10 10 10 11 11 10 10 9 9 9 9 9 9 9 9 9 9 10 10 11 11 11 11 11